                ,  0.671,  0.819,  0.966,  1.114,  1.262,  1.410,  1.558,  1.705,  1.853,  2.001,  2.149,  2.297,  2.445,  2.592,  2.740,  2.888,  3.036,  3.184,  3.331,  3.479,  3.627,  3.775,  3.923,  4.070,  4.218,  4.366,  4.514,  4.662,  4.809,  4.957,  5.105,  5.253,  5.401,  5.549,  5.696,  5.844,  5.992,  6.140,  6.288,  6.435,  6.583,  6.731,  6.879,  7.027,  7.174,  7.322,  7.470,  7.618,  7.766,  7.914,  8.061,  8.209,  8.357,  8.505,  8.653,  8.800,  8.948,  9.096,  9.244,  9.392,  9.539,  9.687,  9.835
2005/12/02 00:00,  999.0,    7.7,    8.5,  999.0,   10.9,   12.8,   13.7,   14.8,   14.0,   14.2,   14.5,   14.6,   14.6,   14.8,   13.5,   15.6,   17.7,   18.9,   20.1,   20.3,  999.0,  999.0,  999.0,  999.0,  999.0,  999.0,  999.0,  999.0,   55.2,  999.0,   55.1,   55.1,   55.2,   55.4,   55.2,   55.3,   55.3,  999.0,   55.4,   55.5,   55.2,   55.3,   55.2,   55.3,   55.0,   55.3,   55.3,  999.0,  999.0,  999.0,  999.0,  999.0,  999.0,  999.0,  999.0,  999.0,  999.0,  999.0,  999.0,  999.0,  999.0,  999.0,  999.0
2005/12/02 00:10,  999.0,    8.0,    8.0,    8.4,   10.9,   12.4,   13.2,   15.3,   15.9,   14.9,   14.5,   14.0,   13.8,   13.7,   13.7,   14.5,   17.1,   19.0,   19.9,   20.9,  999.0,  999.0,  999.0,  999.0,  999.0,  999.0,  999.0,  999.0,  999.0,   55.2,   55.3,   55.1,   55.1,   55.2,   55.3,  999.0,   55.2,  999.0,  999.0,   55.2,  999.0,   55.3,  999.0,  999.0,   55.4,  999.0,   55.1,  999.0,  999.0,  999.0,  999.0,  999.0,  999.0,  999.0,  999.0,  999.0,  999.0,  999.0,  999.0,  999.0,  999.0,  999.0,  999.0
2005/12/02 00:20,  999.0,    6.8,    6.1,    7.8,  999.0,   12.8,   14.0,   15.5,   15.5,   15.2,   14.3,   13.4,   13.0,   13.1,   13.4,   14.9,   16.6,   18.9,   19.7,  999.0,  999.0,  999.0,  999.0,  999.0,  999.0,  999.0,  999.0,   55.0,   55.2,   55.2,  999.0,   55.2,   55.2,   55.3,   55.3,   55.2,   55.3,   55.2,   55.4,   55.4,   55.4,   55.2,   55.2,   55.5,   55.5,   55.3,  999.0,  999.0,  999.0,  999.0,  999.0,  999.0,  999.0,  999.0,  999.0,  999.0,  999.0,  999.0,  999.0,  999.0,  999.0,  999.0,  999.0
2005/12/02 00:30,  999.0,    7.7,    9.1,    8.2,   11.3,   13.3,   14.3,   15.1,   15.2,   15.3,   15.1,   14.6,   13.6,   13.2,   14.9,   16.1,   17.1,   19.0,   19.9,  999.0,  999.0,  999.0,  999.0,  999.0,  999.0,  999.0,  999.0,   55.2,   55.2,   55.2,   55.2,   55.3,   55.2,   55.2,   55.3,   55.3,   55.2,   55.2,   55.3,   55.3,   55.3,   55.4,   55.3,   55.3,   55.2,   55.4,   55.4,   55.6,   55.5,  999.0,  999.0,   55.3,   55.4,  999.0,  999.0,   55.4,  999.0,  999.0,  999.0,  999.0,  999.0,  999.0,  999.0
2005/12/02 00:40,  999.0,  999.0,  999.0,  999.0,   12.8,  999.0,   15.4,   15.3,   14.8,   15.0,   15.6,   14.7,   13.6,   13.6,   14.1,   14.7,   14.9,   16.9,   19.0,  999.0,  999.0,  999.0,  999.0,  999.0,  999.0,  999.0,  999.0,   55.3,   55.2,   55.2,   55.5,   55.2,   55.2,   55.2,   55.3,  999.0,   55.3,   55.2,   55.4,  999.0,   55.5,  999.0,  999.0,  999.0,   55.7,   55.4,  999.0,  999.0,   55.1,  999.0,  999.0,  999.0,  999.0,  999.0,  999.0,  999.0,  999.0,  999.0,  999.0,  999.0,  999.0,  999.0,  999.0
2005/12/02 00:50,  999.0,    8.0,   10.1,  999.0,   12.3,   14.0,   15.0,   16.6,   15.3,   15.0,   14.8,   14.3,   13.7,   13.1,   13.8,   13.9,   14.4,  999.0,   17.3,  999.0,  999.0,  999.0,  999.0,  999.0,  999.0,  999.0,  999.0,  999.0,   55.1,   55.5,  999.0,   55.1,  999.0,  999.0,   55.4,  999.0,  999.0,   55.0,  999.0,  999.0,  999.0,  999.0,   55.2,  999.0,  999.0,  999.0,  999.0,  999.0,  999.0,  999.0,  999.0,  999.0,  999.0,  999.0,  999.0,  999.0,  999.0,  999.0,  999.0,  999.0,  999.0,  999.0,  999.0
2005/12/02 01:00,  999.0,  999.0,   10.5,    9.9,   13.4,   14.6,   15.2,   15.4,   15.4,   15.4,   15.3,   14.9,   13.5,   13.4,   13.7,   14.1,   15.1,   16.7,   18.7,  999.0,  999.0,  999.0,  999.0,  999.0,  999.0,  999.0,   55.2,   55.1,  999.0,   55.2,   55.3,   55.3,   55.2,   55.3,   55.3,  999.0,   55.2,  999.0,  999.0,   55.3,  999.0,  999.0,   55.4,  999.0,  999.0,  999.0,   55.3,  999.0,  999.0,  999.0,  999.0,  999.0,  999.0,  999.0,  999.0,  999.0,  999.0,  999.0,  999.0,  999.0,  999.0,  999.0,  999.0
2005/12/02 01:10,  999.0,  999.0,    9.9,   10.9,   13.0,   14.4,   15.5,   15.7,   16.1,   15.6,   15.9,   15.7,   14.8,   14.2,   13.7,   13.8,   14.2,   17.1,   19.4,  999.0,  999.0,  999.0,  999.0,  999.0,  999.0,  999.0,   55.2,  999.0,   55.2,   55.2,   55.3,   55.2,   55.2,   55.2,   55.3,   55.0,   55.2,   55.3,   55.2,   55.3,   55.4,   55.3,   55.3,   55.4,   55.3,   55.3,   55.4,   55.3,   55.1,  999.0,  999.0,   55.4,  999.0,  999.0,  999.0,  999.0,  999.0,  999.0,  999.0,  999.0,  999.0,  999.0,  999.0
2005/12/02 01:20,  999.0,  999.0,    9.5,    8.9,   13.0,   14.4,   15.0,   15.2,   16.4,   16.9,   16.6,   16.1,   15.3,   14.3,   13.9,   13.7,   12.7,   15.1,   18.5,  999.0,  999.0,  999.0,  999.0,  999.0,  999.0,  999.0,   55.2,   55.1,   55.2,   55.2,   55.3,   55.2,   55.3,   55.2,   55.2,  999.0,   55.2,   55.3,  999.0,   55.4,   55.4,   55.3,  999.0,   55.2,   55.3,  999.0,   55.3,  999.0,  999.0,   55.5,  999.0,  999.0,  999.0,  999.0,  999.0,  999.0,  999.0,  999.0,  999.0,  999.0,  999.0,  999.0,  999.0
2005/12/02 01:30,  999.0,  999.0,    6.5,  999.0,  999.0,   14.3,   15.4,   15.9,   16.0,   16.3,   16.4,   16.1,   15.2,   14.8,   14.1,   13.5,   14.2,   16.5,   19.1,  999.0,  999.0,  999.0,  999.0,  999.0,   55.1,   55.1,   55.3,   55.2,   55.2,   55.3,   55.2,   55.2,   55.2,  999.0,   55.2,   55.3,   55.2,   55.4,   55.3,  999.0,   55.3,   55.3,   55.2,   55.2,   55.4,   55.3,   55.3,   55.4,  999.0,  999.0,  999.0,  999.0,  999.0,   55.5,  999.0,  999.0,  999.0,  999.0,  999.0,  999.0,  999.0,  999.0,  999.0
2005/12/02 01:40,  999.0,    8.6,  999.0,  999.0,   12.4,   15.1,   15.7,   15.7,   15.7,   15.8,   15.9,   15.8,   15.2,   15.0,   13.8,   13.8,   14.6,   16.2,   18.8,  999.0,  999.0,  999.0,  999.0,  999.0,   55.1,   55.2,   55.3,   55.2,   55.2,   55.1,   55.2,   55.2,   55.2,   55.3,   55.2,   55.2,   55.3,   55.3,   55.3,   55.4,   55.3,   55.3,   55.3,   55.3,   55.2,   55.3,  999.0,  999.0,  999.0,  999.0,  999.0,  999.0,  999.0,  999.0,  999.0,  999.0,  999.0,  999.0,  999.0,  999.0,  999.0,  999.0,  999.0
2005/12/02 01:50,  999.0,    8.6,    4.5,    6.2,   13.3,   15.0,   15.8,   15.4,   14.8,   14.9,   14.0,   14.7,   14.2,   15.2,   15.7,   15.5,   14.7,   15.2,   17.4,  999.0,  999.0,  999.0,  999.0,  999.0,  999.0,   55.0,   55.2,  999.0,   55.2,   55.2,   55.3,   55.2,   55.3,   55.1,   55.4,  999.0,   55.3,   55.3,   55.2,   55.3,  999.0,  999.0,   55.3,  999.0,  999.0,  999.0,  999.0,   55.4,  999.0,  999.0,  999.0,  999.0,  999.0,  999.0,  999.0,  999.0,  999.0,  999.0,  999.0,  999.0,  999.0,  999.0,  999.0
2005/12/02 02:00,  999.0,    9.5,  999.0,   11.6,   12.2,   14.9,   15.4,   15.0,   14.6,   14.5,   14.2,   14.3,   14.4,   13.3,  999.0,  999.0,  999.0,  999.0,  999.0,  999.0,  999.0,  999.0,  999.0,  999.0,   55.2,   55.2,   55.1,  999.0,  999.0,   55.2,   55.3,   55.4,   55.3,   55.2,   55.2,   55.3,   55.3,   55.2,  999.0,   55.2,  999.0,   55.0,  999.0,   55.3,  999.0,  999.0,  999.0,  999.0,  999.0,  999.0,  999.0,  999.0,  999.0,  999.0,   55.4,  999.0,  999.0,  999.0,  999.0,  999.0,  999.0,  999.0,  999.0
2005/12/02 02:10,  999.0,    9.2,   12.1,   12.7,   14.4,   15.0,   14.8,   15.1,   14.6,   13.9,   13.8,   13.2,   13.5,   13.5,   13.4,   13.2,   13.6,  999.0,   16.6,  999.0,  999.0,  999.0,  999.0,  999.0,  999.0,  999.0,   55.2,   55.2,   55.2,   55.2,   55.2,   55.2,   55.3,   55.2,   55.1,   55.3,   55.3,   55.2,   55.2,   55.3,   55.3,   55.3,  999.0,   55.3,   55.5,   55.5,  999.0,  999.0,  999.0,   55.3,  999.0,  999.0,  999.0,  999.0,  999.0,  999.0,  999.0,  999.0,  999.0,  999.0,  999.0,  999.0,  999.0
2005/12/02 02:20,  999.0,  999.0,   12.9,   13.5,   14.9,   15.8,   15.3,   15.1,   14.7,   14.1,   13.5,   13.3,   13.4,   13.1,   13.5,   13.7,   14.1,   14.5,   17.1,  999.0,  999.0,  999.0,  999.0,  999.0,  999.0,  999.0,   55.1,  999.0,   55.4,   55.2,   55.3,   55.2,   55.2,   55.2,   55.2,   55.2,   55.2,   55.3,   55.4,   55.4,   55.3,   55.4,  999.0,   55.2,  999.0,   55.2,  999.0,  999.0,  999.0,  999.0,  999.0,  999.0,  999.0,  999.0,  999.0,  999.0,  999.0,  999.0,  999.0,  999.0,  999.0,  999.0,  999.0
2005/12/02 02:30,  999.0,   12.5,   12.3,   14.3,   15.2,   16.0,   14.8,   14.0,   13.6,   14.8,   14.6,   13.8,   14.1,   13.2,   13.1,   12.9,   12.9,   13.4,   17.6,  999.0,  999.0,  999.0,  999.0,  999.0,  999.0,  999.0,   55.2,   55.4,   55.3,   55.2,   55.2,   55.2,   55.3,   55.3,   55.1,   55.3,   55.3,   55.2,   55.4,   55.5,   55.3,   55.3,  999.0,  999.0,  999.0,  999.0,  999.0,  999.0,  999.0,  999.0,  999.0,  999.0,  999.0,  999.0,  999.0,  999.0,  999.0,  999.0,  999.0,  999.0,  999.0,  999.0,  999.0
2005/12/02 02:40,  999.0,  999.0,   12.1,   13.3,   14.5,   15.3,   15.4,   14.7,   14.6,   15.2,   14.7,   13.7,   13.5,   13.1,   12.8,   13.2,   13.4,   15.0,   18.7,  999.0,  999.0,  999.0,  999.0,  999.0,  999.0,  999.0,  999.0,  999.0,  999.0,  999.0,  999.0,   55.2,   55.3,   55.3,   55.3,   55.1,   55.2,   55.3,   55.3,   55.2,   55.3,   55.4,  999.0,  999.0,   55.4,  999.0,  999.0,  999.0,  999.0,  999.0,  999.0,  999.0,  999.0,  999.0,  999.0,  999.0,  999.0,  999.0,  999.0,  999.0,  999.0,  999.0,  999.0
2005/12/02 02:50,  999.0,  999.0,   11.9,   12.5,   14.6,   15.5,   14.7,   14.2,   15.1,   14.6,   14.7,   13.2,   13.3,   13.6,   13.1,   13.2,   13.4,   16.1,   19.3,  999.0,  999.0,  999.0,  999.0,  999.0,  999.0,  999.0,  999.0,   55.0,  999.0,  999.0,   55.2,   55.2,   55.2,   55.3,   55.3,   55.3,   55.3,   55.1,   55.4,   55.4,   55.4,   55.6,   55.2,  999.0,  999.0,  999.0,  999.0,  999.0,  999.0,  999.0,  999.0,  999.0,  999.0,  999.0,  999.0,  999.0,  999.0,  999.0,  999.0,  999.0,  999.0,  999.0,  999.0
2005/12/02 03:00,  999.0,   10.7,   11.8,   13.0,   15.5,   14.7,   14.6,   14.6,   15.4,   14.6,  999.0,  999.0,  999.0,   13.5,   13.2,   13.2,  999.0,   17.0,   18.9,  999.0,  999.0,  999.0,  999.0,  999.0,  999.0,  999.0,  999.0,  999.0,  999.0,  999.0,  999.0,  999.0,   55.3,   55.2,   55.3,   55.3,   55.4,   55.4,  999.0,   55.3,   55.2,   55.1,   55.5,  999.0,   55.1,  999.0,  999.0,  999.0,  999.0,  999.0,  999.0,  999.0,  999.0,  999.0,  999.0,  999.0,  999.0,  999.0,  999.0,  999.0,  999.0,  999.0,  999.0
2005/12/02 03:10,  999.0,    8.9,   12.3,   13.0,   14.7,   14.4,   14.4,   14.9,   14.6,   14.3,  999.0,  999.0,   14.9,   13.4,   14.5,   14.0,   14.5,   16.8,  999.0,  999.0,  999.0,  999.0,  999.0,  999.0,  999.0,  999.0,  999.0,  999.0,  999.0,   55.2,   55.4,   55.3,   55.2,   55.4,   55.3,   55.3,   55.2,   55.3,   55.3,   55.3,   55.3,   55.4,   55.5,   55.4,   55.4,  999.0,  999.0,   55.5,  999.0,  999.0,  999.0,  999.0,  999.0,  999.0,  999.0,  999.0,  999.0,  999.0,  999.0,  999.0,  999.0,  999.0,  999.0
2005/12/02 03:20,  999.0,   10.6,   12.0,   13.0,   14.3,   14.3,   14.8,   15.2,   13.7,   13.8,   14.4,   13.6,   14.3,   13.9,   13.9,   14.2,   16.4,   18.6,  999.0,  999.0,  999.0,  999.0,  999.0,  999.0,  999.0,  999.0,  999.0,  999.0,  999.0,  999.0,  999.0,  999.0,  999.0,   55.3,   55.2,   55.3,   55.4,   55.2,   55.3,   55.1,   55.4,   55.4,  999.0,  999.0,   55.4,  999.0,   55.4,   55.3,  999.0,  999.0,  999.0,  999.0,  999.0,  999.0,  999.0,  999.0,  999.0,  999.0,  999.0,  999.0,  999.0,  999.0,  999.0
2005/12/02 03:30,  999.0,    9.8,   12.2,   13.1,   14.0,   14.4,   14.6,   14.5,   14.2,   13.1,   12.5,   12.6,   12.9,   13.0,   13.3,   14.0,   16.1,   18.9,  999.0,  999.0,  999.0,  999.0,  999.0,  999.0,  999.0,  999.0,  999.0,  999.0,  999.0,  999.0,  999.0,  999.0,  999.0,   55.2,   55.3,   55.2,   55.3,   55.2,   55.2,   55.3,   55.3,   55.2,   55.4,   55.3,   55.3,   55.4,   55.3,   55.4,  999.0,   55.8,  999.0,  999.0,  999.0,  999.0,  999.0,  999.0,  999.0,  999.0,  999.0,  999.0,  999.0,  999.0,  999.0
2005/12/02 03:40,  999.0,   10.1,   11.9,   13.2,   13.8,   14.3,   14.2,   13.6,   13.5,   12.5,   12.3,   11.9,   11.8,   11.5,   11.5,   13.3,   15.5,   18.0,  999.0,  999.0,  999.0,  999.0,  999.0,  999.0,  999.0,  999.0,  999.0,  999.0,  999.0,  999.0,  999.0,   55.2,   55.4,   55.3,   55.2,   55.2,   55.4,   55.5,   55.3,  999.0,   55.5,  999.0,  999.0,  999.0,  999.0,  999.0,  999.0,  999.0,  999.0,  999.0,  999.0,  999.0,  999.0,  999.0,  999.0,  999.0,  999.0,   55.4,  999.0,  999.0,  999.0,  999.0,  999.0
2005/12/02 03:50,  999.0,   10.4,   12.0,   12.9,   12.9,   14.5,   14.4,   13.1,   12.3,   12.0,   11.7,   11.5,   11.6,   12.7,   13.7,   14.1,   15.8,   18.4,  999.0,  999.0,  999.0,  999.0,  999.0,  999.0,  999.0,  999.0,  999.0,  999.0,  999.0,  999.0,  999.0,   55.2,   55.3,   55.3,   55.3,   55.2,   55.3,   55.2,   55.3,  999.0,   55.4,   55.4,  999.0,  999.0,  999.0,  999.0,  999.0,  999.0,  999.0,  999.0,  999.0,  999.0,  999.0,  999.0,  999.0,  999.0,  999.0,  999.0,  999.0,  999.0,  999.0,  999.0,  999.0
2005/12/02 04:00,  999.0,   10.6,   11.7,   12.8,   11.8,   14.2,   14.3,   13.0,   12.3,   11.3,   11.6,   12.2,   13.1,   14.2,   15.5,   15.0,   17.3,  999.0,  999.0,  999.0,  999.0,  999.0,  999.0,  999.0,  999.0,  999.0,  999.0,  999.0,  999.0,  999.0,  999.0,  999.0,   55.2,   55.3,   55.3,   55.3,   55.4,   55.4,   55.4,   55.4,   55.3,   55.2,  999.0,  999.0,  999.0,  999.0,  999.0,  999.0,  999.0,  999.0,  999.0,  999.0,  999.0,  999.0,  999.0,  999.0,  999.0,  999.0,  999.0,  999.0,  999.0,  999.0,  999.0
2005/12/02 04:10,  999.0,   10.6,   11.7,   12.4,   12.4,   14.2,   14.2,   13.9,   12.9,   12.6,   13.1,   14.2,   15.1,   15.5,   15.3,   15.0,   16.7,  999.0,  999.0,  999.0,  999.0,  999.0,  999.0,  999.0,  999.0,  999.0,  999.0,  999.0,  999.0,  999.0,   55.3,   55.2,   55.2,   55.3,   55.3,   55.4,   55.3,   55.3,   55.4,  999.0,   55.3,  999.0,  999.0,  999.0,  999.0,  999.0,  999.0,  999.0,  999.0,  999.0,  999.0,  999.0,  999.0,  999.0,  999.0,  999.0,  999.0,  999.0,  999.0,  999.0,  999.0,  999.0,  999.0
2005/12/02 04:20,  999.0,   11.0,   11.9,   12.9,   13.6,   13.8,   14.0,  999.0,   13.5,   14.1,   15.4,   15.3,   15.4,   15.5,   14.7,   15.1,   15.4,  999.0,  999.0,  999.0,  999.0,  999.0,  999.0,  999.0,  999.0,  999.0,  999.0,  999.0,  999.0,  999.0,  999.0,   55.3,   55.3,   55.2,   55.2,   55.3,   55.5,   55.4,   55.4,   55.5,  999.0,  999.0,  999.0,  999.0,  999.0,  999.0,  999.0,  999.0,  999.0,  999.0,  999.0,  999.0,  999.0,  999.0,  999.0,  999.0,  999.0,  999.0,  999.0,  999.0,  999.0,  999.0,  999.0
2005/12/02 04:30,  999.0,   11.3,   12.1,   13.4,   13.6,   13.7,   14.0,   14.0,   13.6,   13.7,   14.1,   14.7,   15.5,   15.3,   14.6,   14.1,   14.1,   16.1,  999.0,  999.0,  999.0,  999.0,  999.0,  999.0,  999.0,  999.0,  999.0,  999.0,  999.0,  999.0,  999.0,   55.3,   55.3,   55.4,   55.3,  999.0,   55.3,   55.4,  999.0,  999.0,  999.0,  999.0,  999.0,  999.0,  999.0,  999.0,  999.0,  999.0,  999.0,  999.0,  999.0,  999.0,  999.0,  999.0,  999.0,  999.0,  999.0,  999.0,  999.0,  999.0,  999.0,  999.0,  999.0
2005/12/02 04:40,  999.0,   10.0,   12.3,   13.9,   13.6,   14.0,   14.2,   13.9,   13.0,   12.7,   12.7,   13.2,   14.2,   14.4,   14.5,   14.1,   13.4,   16.1,  999.0,  999.0,  999.0,  999.0,  999.0,  999.0,  999.0,  999.0,  999.0,  999.0,  999.0,  999.0,  999.0,  999.0,   55.0,  999.0,   55.4,   55.2,   55.2,   55.3,   55.3,   55.4,  999.0,  999.0,  999.0,  999.0,  999.0,  999.0,  999.0,  999.0,  999.0,  999.0,  999.0,  999.0,  999.0,  999.0,  999.0,  999.0,  999.0,  999.0,  999.0,  999.0,  999.0,  999.0,  999.0
2005/12/02 04:50,  999.0,    6.6,   10.8,   12.5,   14.6,   14.2,   14.4,   14.0,   13.1,   12.2,   12.2,   12.8,   14.0,   14.2,   14.0,   13.9,   13.5,   15.0,  999.0,  999.0,  999.0,  999.0,  999.0,  999.0,  999.0,  999.0,  999.0,  999.0,  999.0,  999.0,  999.0,  999.0,   55.3,   55.4,   55.2,   55.3,   55.4,   55.3,  999.0,  999.0,  999.0,  999.0,  999.0,  999.0,  999.0,  999.0,  999.0,  999.0,  999.0,  999.0,  999.0,  999.0,  999.0,  999.0,   55.2,   55.2,  999.0,   55.4,  999.0,  999.0,  999.0,  999.0,  999.0
2005/12/02 05:00,  999.0,   10.5,   11.5,   11.9,   13.8,   14.0,   14.0,   13.8,   13.9,   12.3,   12.3,   12.7,   13.8,   14.7,   14.4,   14.7,   13.2,  999.0,  999.0,  999.0,  999.0,  999.0,  999.0,  999.0,  999.0,   55.2,   55.2,   55.2,   55.3,   55.3,   55.2,   55.2,   55.3,  999.0,  999.0,  999.0,  999.0,  999.0,   46.4,   36.8,   36.8,   37.0,   38.4,   38.7,  999.0,  999.0,  999.0,  999.0,  999.0,  999.0,  999.0,  999.0,  999.0,  999.0,  999.0,  999.0,  999.0,  999.0,  999.0,  999.0,  999.0,  999.0,  999.0
2005/12/02 05:10,  999.0,   11.7,   12.1,   12.2,   12.8,   13.7,   13.9,   13.5,   13.5,   12.3,   12.5,   12.9,   13.9,   14.1,   13.5,   13.5,   14.1,  999.0,  999.0,  999.0,  999.0,  999.0,  999.0,  999.0,  999.0,  999.0,  999.0,   55.1,  999.0,   55.3,   55.2,  999.0,  999.0,  999.0,  999.0,  999.0,  999.0,  999.0,  999.0,   36.3,   36.6,   36.8,   37.8,   39.1,   39.3,   40.1,  999.0,  999.0,  999.0,  999.0,  999.0,  999.0,  999.0,  999.0,  999.0,  999.0,  999.0,  999.0,  999.0,  999.0,  999.0,  999.0,  999.0
2005/12/02 05:20,  999.0,   11.5,   11.7,   12.1,   12.6,   13.6,   13.6,   13.1,   13.2,   12.4,   12.6,   12.9,   13.3,   13.4,   14.2,   14.0,   14.8,  999.0,  999.0,  999.0,  999.0,  999.0,  999.0,  999.0,  999.0,  999.0,  999.0,  999.0,  999.0,  999.0,  999.0,  999.0,  999.0,  999.0,   30.2,   33.3,   35.7,   36.4,   36.4,   36.1,   36.6,   36.6,   37.4,   38.4,   39.1,  999.0,  999.0,  999.0,  999.0,  999.0,  999.0,  999.0,  999.0,  999.0,  999.0,  999.0,  999.0,  999.0,  999.0,  999.0,  999.0,  999.0,  999.0
2005/12/02 05:30,  999.0,    9.4,   11.3,   11.9,   12.6,   13.3,   13.4,   12.8,   12.5,   12.3,   12.5,   12.9,   13.1,   13.3,   14.4,   14.4,   14.5,  999.0,  999.0,  999.0,  999.0,  999.0,  999.0,  999.0,  999.0,  999.0,  999.0,  999.0,  999.0,  999.0,  999.0,  999.0,  999.0,   27.3,   29.6,   33.2,   36.0,   36.3,   35.9,   35.4,   35.6,   36.1,   37.1,   38.0,   38.5,   38.2,  999.0,  999.0,  999.0,  999.0,  999.0,  999.0,  999.0,  999.0,  999.0,  999.0,  999.0,  999.0,  999.0,  999.0,  999.0,  999.0,  999.0
2005/12/02 05:40,  999.0,   10.9,   10.6,   11.9,   12.5,   13.3,   13.0,   12.8,   11.9,   11.6,   12.3,   12.6,   12.7,   14.1,   15.1,   15.3,   15.0,  999.0,  999.0,  999.0,  999.0,  999.0,  999.0,  999.0,  999.0,  999.0,  999.0,  999.0,  999.0,  999.0,  999.0,  999.0,  999.0,   27.5,   29.6,   34.3,   35.9,   36.2,   35.3,   34.9,   34.6,   35.3,   36.5,   37.1,   38.5,  999.0,  999.0,  999.0,  999.0,  999.0,  999.0,  999.0,  999.0,  999.0,  999.0,  999.0,  999.0,  999.0,  999.0,  999.0,  999.0,  999.0,  999.0
2005/12/02 05:50,  999.0,    9.4,   10.8,   11.7,   12.5,   13.3,   13.2,   12.7,   13.1,   12.3,   12.6,   12.5,   12.4,   13.7,   15.3,   15.2,   14.8,  999.0,  999.0,  999.0,  999.0,  999.0,  999.0,  999.0,  999.0,  999.0,  999.0,  999.0,  999.0,  999.0,  999.0,  999.0,   25.8,   26.8,   29.6,   34.1,   35.1,   34.4,   34.4,   34.3,   34.3,   34.7,   36.3,   36.7,   37.3,  999.0,   38.4,  999.0,  999.0,  999.0,  999.0,  999.0,  999.0,  999.0,  999.0,  999.0,  999.0,  999.0,  999.0,  999.0,  999.0,  999.0,  999.0
2005/12/02 06:00,  999.0,    4.8,    8.1,    9.5,  999.0,   13.5,   13.0,   12.2,   12.3,   12.5,   11.9,   11.8,   11.9,   13.6,   15.0,   15.8,   14.7,  999.0,  999.0,  999.0,  999.0,  999.0,  999.0,  999.0,  999.0,   55.2,   55.2,  999.0,   55.2,   55.2,   55.2,  999.0,  999.0,  999.0,  999.0,   35.2,   35.0,   35.5,   35.0,   34.7,   34.6,   35.2,   36.7,   36.5,   37.3,  999.0,  999.0,  999.0,  999.0,  999.0,  999.0,  999.0,  999.0,  999.0,  999.0,  999.0,  999.0,  999.0,  999.0,  999.0,  999.0,  999.0,  999.0
2005/12/02 06:10,  999.0,    6.9,    7.3,    7.0,  999.0,   12.2,   11.9,   11.2,   11.9,   12.6,   11.9,   12.0,   13.3,   15.1,   15.7,   15.9,  999.0,  999.0,  999.0,  999.0,  999.0,  999.0,  999.0,  999.0,  999.0,  999.0,  999.0,  999.0,  999.0,  999.0,  999.0,  999.0,  999.0,  999.0,   30.0,   33.9,   35.3,   34.8,   34.3,   34.1,   33.9,   35.2,   35.5,   36.2,   36.6,   37.0,  999.0,  999.0,  999.0,  999.0,  999.0,  999.0,  999.0,  999.0,  999.0,  999.0,  999.0,  999.0,  999.0,  999.0,  999.0,  999.0,  999.0
2005/12/02 06:20,  999.0,    6.7,    7.0,    3.6,    3.5,   12.1,   11.3,   11.5,   12.1,   12.8,   12.7,   12.6,   14.8,   15.7,   16.5,   16.4,   16.7,  999.0,  999.0,  999.0,  999.0,  999.0,  999.0,  999.0,  999.0,  999.0,   55.2,   55.2,   55.2,   55.3,   55.3,  999.0,  999.0,  999.0,  999.0,   32.8,   34.1,   33.7,   33.5,   33.5,   33.5,   34.3,   35.7,   36.0,   36.6,   36.3,  999.0,  999.0,  999.0,  999.0,  999.0,  999.0,  999.0,  999.0,  999.0,  999.0,  999.0,  999.0,  999.0,  999.0,  999.0,  999.0,  999.0
2005/12/02 06:30,  999.0,    6.5,    7.7,    7.6,    9.1,   11.5,   11.1,   11.9,   11.5,   12.6,   13.4,   14.3,   15.3,   16.2,   15.7,  999.0,   16.2,  999.0,  999.0,  999.0,  999.0,  999.0,  999.0,  999.0,  999.0,  999.0,  999.0,  999.0,  999.0,  999.0,  999.0,   21.1,   22.9,   24.0,   27.6,   32.3,   33.8,   33.8,   33.5,   33.2,   32.6,   33.9,   35.1,   35.9,   36.1,  999.0,  999.0,  999.0,  999.0,  999.0,  999.0,  999.0,  999.0,  999.0,  999.0,  999.0,  999.0,  999.0,  999.0,  999.0,  999.0,  999.0,  999.0
2005/12/02 06:40,  999.0,    6.5,    8.0,    6.4,   11.0,   10.9,   11.2,   11.0,   11.8,   13.2,   14.2,   14.9,   16.1,   17.5,   16.6,   15.5,   17.0,  999.0,  999.0,  999.0,  999.0,  999.0,  999.0,  999.0,  999.0,  999.0,  999.0,  999.0,  999.0,  999.0,  999.0,   21.2,   22.4,   24.2,   28.0,   33.0,   32.9,   33.7,   32.7,   32.7,   32.9,   34.3,   35.4,   35.4,   35.5,   35.6,  999.0,  999.0,  999.0,  999.0,  999.0,  999.0,  999.0,  999.0,  999.0,  999.0,  999.0,  999.0,  999.0,  999.0,  999.0,  999.0,  999.0
2005/12/02 06:50,  999.0,    7.4,  999.0,  999.0,   11.3,   11.0,   11.6,   11.5,   12.5,   13.4,   13.9,   14.8,   16.2,   17.1,  999.0,  999.0,  999.0,  999.0,  999.0,  999.0,  999.0,  999.0,  999.0,  999.0,  999.0,  999.0,  999.0,  999.0,  999.0,  999.0,   21.1,   21.1,   22.2,   23.7,   25.9,   31.3,   33.4,   33.3,   32.2,   32.4,   32.7,   34.2,   34.5,   34.8,   34.9,   35.5,   38.2,  999.0,  999.0,  999.0,  999.0,  999.0,  999.0,  999.0,  999.0,  999.0,  999.0,  999.0,  999.0,  999.0,  999.0,  999.0,  999.0
2005/12/02 07:00,  999.0,    7.4,    7.4,    7.6,   10.7,   11.4,   12.0,   12.6,   12.6,   12.9,   13.6,   14.3,   15.9,   16.9,   15.4,   14.9,  999.0,  999.0,  999.0,  999.0,  999.0,  999.0,  999.0,  999.0,  999.0,  999.0,  999.0,  999.0,  999.0,  999.0,   21.3,   21.0,   22.4,   24.2,   27.3,   32.5,   33.6,   32.5,   32.1,   32.7,   32.9,   34.2,   34.4,   34.3,   34.8,   35.4,  999.0,   37.2,  999.0,  999.0,  999.0,  999.0,  999.0,  999.0,  999.0,  999.0,  999.0,  999.0,  999.0,  999.0,  999.0,  999.0,  999.0
2005/12/02 07:10,  999.0,    7.3,  999.0,    8.7,   11.5,   13.0,   13.2,   13.3,   13.3,   13.1,   13.6,   15.2,   16.9,   16.1,   15.1,  999.0,  999.0,  999.0,  999.0,  999.0,  999.0,  999.0,  999.0,  999.0,  999.0,  999.0,  999.0,  999.0,  999.0,   21.0,   20.3,   20.4,   22.3,   23.6,   26.3,   31.7,   34.0,   33.9,   32.8,   31.9,   32.8,   34.2,   34.1,   33.6,   34.4,   35.5,  999.0,  999.0,  999.0,  999.0,  999.0,  999.0,  999.0,  999.0,  999.0,  999.0,  999.0,  999.0,  999.0,  999.0,  999.0,  999.0,  999.0
2005/12/02 07:20,  999.0,    6.9,    5.9,    9.6,   12.2,   13.5,   13.6,   13.6,   13.8,   13.7,   13.9,   15.0,   16.5,   16.1,   14.2,   15.3,  999.0,  999.0,  999.0,  999.0,  999.0,  999.0,  999.0,  999.0,  999.0,  999.0,  999.0,  999.0,  999.0,   21.7,   20.9,   20.1,   22.4,   23.4,   25.8,   31.4,   33.1,   32.8,   31.5,   31.7,   32.5,   33.6,   33.7,   33.4,   33.5,  999.0,  999.0,  999.0,  999.0,  999.0,  999.0,  999.0,  999.0,  999.0,  999.0,  999.0,  999.0,  999.0,  999.0,  999.0,  999.0,  999.0,  999.0
2005/12/02 07:30,  999.0,    6.2,    6.1,    8.1,   12.6,   13.5,   13.6,   13.8,   13.8,   13.9,   14.4,   16.1,   16.4,   16.0,   14.7,  999.0,  999.0,  999.0,  999.0,  999.0,  999.0,  999.0,  999.0,  999.0,  999.0,  999.0,  999.0,  999.0,  999.0,  999.0,  999.0,  999.0,   22.1,   22.9,   25.6,   29.7,   32.2,   32.0,   31.1,   31.1,   32.2,   33.1,   33.3,   33.2,   32.4,   34.1,   35.9,  999.0,  999.0,  999.0,  999.0,  999.0,  999.0,  999.0,  999.0,  999.0,  999.0,  999.0,  999.0,  999.0,  999.0,  999.0,  999.0
2005/12/02 07:40,  999.0,    7.2,    5.0,    8.1,   12.9,   13.9,   12.9,   13.3,   13.9,   14.2,   15.4,   16.8,   17.2,   16.3,   15.9,   15.3,  999.0,  999.0,  999.0,  999.0,  999.0,  999.0,  999.0,  999.0,  999.0,  999.0,  999.0,  999.0,   20.3,   20.3,   19.5,   20.0,   22.0,   23.0,   26.9,   30.3,   32.1,   31.7,   31.3,   31.6,   32.4,   32.9,   32.6,   32.1,   32.7,   34.4,   36.0,  999.0,  999.0,  999.0,  999.0,  999.0,  999.0,  999.0,  999.0,  999.0,  999.0,  999.0,  999.0,  999.0,  999.0,  999.0,  999.0
2005/12/02 07:50,  999.0,    6.5,    6.9,    6.5,   13.0,   14.0,   12.4,  999.0,  999.0,   14.8,   15.8,   16.3,   16.1,   15.7,   15.2,   15.7,  999.0,  999.0,  999.0,  999.0,  999.0,  999.0,  999.0,  999.0,  999.0,  999.0,  999.0,   19.8,   19.7,   19.2,   19.1,   20.9,   22.4,   24.5,   28.8,   31.2,   32.7,   32.1,   31.7,   31.9,   32.6,   33.1,   32.6,   32.1,   32.6,   33.9,   36.0,  999.0,  999.0,  999.0,  999.0,  999.0,  999.0,  999.0,  999.0,  999.0,  999.0,  999.0,  999.0,  999.0,  999.0,  999.0,  999.0
2005/12/02 08:00,  999.0,    5.8,    9.6,   12.2,   13.2,   14.6,  999.0,   13.2,   13.6,   14.1,   14.8,   15.0,   14.5,   14.4,   14.2,   15.3,  999.0,  999.0,  999.0,  999.0,  999.0,  999.0,  999.0,  999.0,   21.5,   21.5,   19.9,   19.2,   19.9,   19.9,   20.5,   22.0,   22.9,   25.9,   29.9,   32.1,   32.6,   32.1,   32.0,   32.7,   33.7,   33.6,   33.0,   32.6,   33.1,   34.5,   36.3,   37.6,  999.0,  999.0,  999.0,  999.0,  999.0,  999.0,  999.0,  999.0,  999.0,  999.0,  999.0,  999.0,  999.0,  999.0,  999.0
2005/12/02 08:10,  999.0,    5.8,   11.3,   12.3,   13.2,   14.3,   14.4,   15.3,   13.8,   13.8,   13.5,   13.4,   13.8,   14.0,   14.4,   15.5,  999.0,  999.0,  999.0,  999.0,  999.0,  999.0,  999.0,  999.0,  999.0,   21.1,  999.0,   21.1,   20.7,   20.4,   20.4,   21.8,   22.9,   26.1,   29.8,   31.8,   32.3,   32.8,   33.0,   33.5,   33.9,   33.4,   33.0,   34.2,   35.0,   36.1,   37.0,   38.0,  999.0,  999.0,  999.0,  999.0,  999.0,  999.0,  999.0,  999.0,  999.0,  999.0,  999.0,  999.0,  999.0,  999.0,  999.0
2005/12/02 08:20,  999.0,    6.3,   11.4,   12.4,   13.7,   14.2,   15.9,   16.5,   14.1,   13.2,   13.3,   13.0,   13.3,   14.5,   14.8,   15.1,   15.9,  999.0,  999.0,  999.0,  999.0,  999.0,  999.0,  999.0,   20.9,   20.9,   20.5,   20.2,   19.9,   20.1,   20.1,   21.7,   22.5,   26.0,   30.6,   32.0,   32.2,   32.7,   32.8,   33.3,   33.2,   32.7,   33.0,   34.7,   35.9,   36.8,   36.8,   37.4,  999.0,  999.0,  999.0,  999.0,  999.0,  999.0,  999.0,  999.0,  999.0,  999.0,  999.0,  999.0,  999.0,  999.0,  999.0
2005/12/02 08:30,  999.0,  999.0,    7.3,   11.3,   12.7,   14.6,   16.0,   15.4,   14.5,   13.5,   13.6,   13.1,  999.0,   15.7,   15.8,   15.7,   16.0,  999.0,  999.0,  999.0,  999.0,  999.0,  999.0,  999.0,   20.8,   21.2,   20.4,   19.6,   19.5,   19.1,   19.3,   21.2,   21.8,   26.0,   30.8,   31.6,   31.8,   32.4,   32.4,   32.2,   32.1,   32.7,   34.5,   35.3,   36.7,   36.7,   37.0,   38.0,   40.9,   45.4,  999.0,  999.0,  999.0,  999.0,  999.0,  999.0,  999.0,  999.0,  999.0,  999.0,  999.0,  999.0,  999.0
2005/12/02 08:40,  999.0,    6.5,    7.2,  999.0,   12.9,   14.3,   15.9,   16.2,  999.0,   14.7,   14.4,   14.4,  999.0,   16.3,   16.5,   16.1,   16.1,  999.0,  999.0,  999.0,  999.0,  999.0,  999.0,  999.0,   20.1,   20.5,   20.4,   20.0,   20.2,   19.3,   19.1,   20.8,   21.2,   25.3,   29.3,   30.4,   31.1,   31.5,   31.4,   31.6,   32.1,   33.8,   34.6,   35.2,   36.5,   36.2,   37.1,   39.2,   42.3,   46.6,  999.0,  999.0,  999.0,  999.0,  999.0,  999.0,  999.0,  999.0,  999.0,  999.0,  999.0,  999.0,  999.0
2005/12/02 08:50,  999.0,    5.2,    6.1,    9.9,   13.8,   14.9,   15.8,   16.3,   15.7,   15.3,   15.0,   15.6,   16.1,   16.5,   16.4,   15.9,   16.0,  999.0,  999.0,  999.0,  999.0,  999.0,  999.0,  999.0,   20.2,   20.9,   20.9,   20.5,   19.7,   19.1,   19.2,   20.2,   21.0,   24.0,   27.9,   30.6,   30.9,   31.0,   31.3,   32.0,   33.2,   34.0,   34.7,   34.9,   35.7,   36.2,   36.6,   38.5,   41.6,   45.6,   45.6,  999.0,  999.0,  999.0,  999.0,  999.0,  999.0,  999.0,  999.0,  999.0,  999.0,  999.0,  999.0
2005/12/02 09:00,  999.0,    2.6,    6.3,    8.5,   13.8,   14.9,   15.8,   16.7,   16.5,   16.4,   15.3,   15.7,   14.8,   15.0,   15.0,   14.8,   15.3,   16.8,  999.0,  999.0,  999.0,  999.0,  999.0,   18.2,   18.6,   20.0,   21.2,   20.9,   19.8,   19.1,   19.6,   20.4,   22.3,   24.9,   29.9,   30.7,   31.4,   31.8,   32.2,   33.1,   34.4,   35.4,   35.8,   36.3,   37.3,  999.0,   36.8,  999.0,  999.0,  999.0,  999.0,  999.0,  999.0,  999.0,  999.0,  999.0,  999.0,  999.0,  999.0,  999.0,  999.0,  999.0,  999.0
2005/12/02 09:10,  999.0,    2.0,    6.6,    8.8,   13.1,   14.4,   15.2,   16.2,   16.4,   15.9,   15.5,   15.1,   14.4,   14.7,   15.1,   14.9,   15.9,   16.7,  999.0,  999.0,  999.0,   18.2,   18.4,   18.4,   18.5,   20.1,   20.9,   20.4,   18.7,   19.1,   19.9,   21.7,   25.4,   28.5,   29.9,   31.1,   31.7,   31.9,   32.1,   32.3,   33.2,   34.2,   34.9,   35.8,   36.1,   35.1,  999.0,  999.0,  999.0,  999.0,  999.0,  999.0,  999.0,  999.0,  999.0,  999.0,  999.0,  999.0,  999.0,  999.0,  999.0,  999.0,  999.0
2005/12/02 09:20,  999.0,    3.0,    8.1,    9.6,   12.5,   13.9,  999.0,   15.8,   16.3,   15.7,   15.3,   15.7,   14.7,   14.6,   14.7,   15.1,   15.6,   16.4,   17.6,  999.0,  999.0,  999.0,   18.3,   18.2,   19.1,   19.9,   20.4,   19.6,   18.7,   19.4,   21.1,   24.0,   27.5,   28.2,   28.9,   30.6,   31.3,   31.9,   32.3,   32.1,   32.8,   33.9,   34.4,   35.6,   36.1,  999.0,  999.0,  999.0,  999.0,  999.0,  999.0,  999.0,  999.0,  999.0,  999.0,  999.0,  999.0,  999.0,  999.0,  999.0,  999.0,  999.0,  999.0
2005/12/02 09:30,  999.0,    5.1,    7.8,    8.6,   13.1,   14.2,   14.7,   14.4,   15.8,   15.6,   15.4,   15.8,   14.5,   14.1,   13.8,   14.0,   15.7,   16.8,   17.4,   17.5,  999.0,   19.2,   18.4,   19.6,   19.2,   20.6,   20.2,   19.0,   19.6,   22.1,   25.5,   27.6,   28.5,   29.1,   30.4,   31.1,   31.7,   32.3,   32.7,   33.2,   33.5,   34.6,   35.4,   36.6,   36.7,  999.0,  999.0,  999.0,  999.0,  999.0,  999.0,  999.0,  999.0,  999.0,  999.0,  999.0,  999.0,  999.0,  999.0,  999.0,  999.0,  999.0,  999.0
2005/12/02 09:40,  999.0,    5.8,    8.7,    7.6,   13.2,   13.8,   14.1,   15.0,   15.4,   15.5,   16.0,   15.4,   13.5,   13.1,   13.2,   14.0,   14.6,   15.3,   16.7,   17.6,   17.8,   18.7,  999.0,   18.3,  999.0,   19.0,   19.6,   18.5,   20.6,   24.7,   27.2,   27.1,   28.7,   29.6,   30.9,   31.0,   31.6,   32.2,   32.8,   33.3,   34.2,   36.2,   36.8,   38.0,  999.0,  999.0,  999.0,  999.0,  999.0,  999.0,  999.0,  999.0,  999.0,  999.0,  999.0,  999.0,  999.0,  999.0,  999.0,  999.0,  999.0,  999.0,  999.0
2005/12/02 09:50,  999.0,    6.2,   10.1,   10.7,   12.7,   12.9,   13.3,   14.1,   14.8,   15.5,   15.9,   14.1,   12.9,   13.3,   13.5,   14.4,   14.7,   16.0,   17.4,   18.5,   18.2,  999.0,  999.0,   17.4,   18.6,   19.2,   19.0,   19.4,   22.2,   25.5,   27.5,   27.2,   28.4,   30.5,   32.0,   32.1,   32.7,   33.6,   33.4,   34.3,   35.6,   36.2,   37.7,  999.0,  999.0,  999.0,  999.0,  999.0,  999.0,  999.0,  999.0,  999.0,  999.0,  999.0,  999.0,  999.0,  999.0,  999.0,  999.0,  999.0,  999.0,  999.0,  999.0
2005/12/02 10:00,  999.0,    6.0,    8.7,   10.0,   10.4,   12.5,   13.3,   14.5,   15.3,   15.5,   15.1,   13.1,   11.8,   11.9,   12.9,   14.1,   15.3,   16.7,   17.0,   16.0,   17.2,   17.1,   18.1,   18.5,   18.7,   18.7,   18.2,   19.8,   23.0,   26.1,   26.9,   27.1,   28.9,   30.8,   31.9,   32.2,   32.6,   33.2,   33.8,   35.3,   36.5,   37.7,  999.0,  999.0,  999.0,  999.0,  999.0,  999.0,  999.0,  999.0,  999.0,  999.0,  999.0,  999.0,  999.0,  999.0,  999.0,  999.0,  999.0,  999.0,  999.0,  999.0,  999.0
2005/12/02 10:10,  999.0,    4.5,    7.5,    8.6,    9.1,   12.4,   12.9,   14.3,   15.1,   15.2,   15.2,   14.1,   12.5,   11.6,   12.5,   14.3,   14.7,   15.4,   16.9,   16.9,   17.3,   17.6,   17.8,   18.3,   18.6,   18.0,   18.4,   19.9,   22.7,   25.4,   26.1,   27.7,   30.4,   31.6,   32.5,   32.5,   33.3,   34.5,   35.8,   36.7,   37.5,   38.1,  999.0,   38.3,   37.3,  999.0,  999.0,  999.0,  999.0,  999.0,  999.0,  999.0,  999.0,  999.0,  999.0,  999.0,  999.0,  999.0,  999.0,  999.0,  999.0,  999.0,  999.0
2005/12/02 10:20,  999.0,    4.1,    7.3,    8.3,    8.6,   11.2,   12.4,   13.9,   14.4,   15.4,   15.2,   14.0,   12.5,   12.0,   12.3,   13.6,   14.8,   15.8,   16.5,   17.1,   18.7,   17.3,   17.8,   17.9,   17.4,   17.8,   19.1,   20.6,   23.4,   24.6,   26.1,   28.5,   29.8,   30.6,   31.3,   31.9,   33.1,   34.9,   36.1,   36.3,   36.2,   37.5,   36.9,   38.4,  999.0,  999.0,  999.0,  999.0,  999.0,  999.0,  999.0,  999.0,  999.0,  999.0,  999.0,  999.0,  999.0,  999.0,  999.0,  999.0,  999.0,  999.0,  999.0
2005/12/02 10:30,  999.0,    5.2,    7.7,    9.2,    7.8,  999.0,   12.3,   14.0,   14.4,   15.4,   16.3,   15.4,   13.9,   13.1,   14.3,   15.6,   16.4,   16.4,   16.4,   18.0,   17.5,   17.2,   17.5,   17.8,   17.6,   17.9,   19.3,   21.1,   22.6,   23.8,   26.0,   29.0,   29.9,   30.1,   31.0,   32.6,   33.8,   34.7,   35.9,   35.6,   35.6,   36.3,   37.3,  999.0,  999.0,  999.0,  999.0,  999.0,  999.0,  999.0,  999.0,  999.0,  999.0,  999.0,  999.0,  999.0,  999.0,  999.0,  999.0,  999.0,  999.0,  999.0,  999.0
2005/12/02 10:40,  999.0,    2.9,    5.1,    2.5,    8.6,   10.8,   11.8,   13.6,   14.8,   15.6,   15.6,   15.7,   13.2,   13.0,   12.9,   14.7,   16.0,   17.0,   17.8,   16.9,   16.7,   16.8,   17.1,   17.5,   17.3,   17.7,   18.9,   20.1,   21.4,   22.7,   25.0,   28.2,   29.8,   30.1,   30.8,   32.0,   31.8,   32.5,   33.5,   34.7,   36.5,   37.5,  999.0,  999.0,  999.0,  999.0,  999.0,  999.0,  999.0,  999.0,  999.0,  999.0,  999.0,  999.0,  999.0,  999.0,  999.0,  999.0,  999.0,  999.0,  999.0,  999.0,  999.0
2005/12/02 10:50,  999.0,    1.4,    1.9,    2.4,    6.1,  999.0,  999.0,   13.0,   14.4,   15.1,   14.7,   15.1,   13.1,   12.5,   13.9,   15.1,   15.5,   16.6,   16.6,   17.3,   17.5,   17.5,   17.4,   17.0,   16.4,   17.2,   17.8,   19.4,   21.5,   22.5,   24.5,   26.1,   28.8,   30.8,   31.8,   31.7,   32.1,  999.0,  999.0,  999.0,  999.0,  999.0,  999.0,  999.0,  999.0,  999.0,  999.0,  999.0,  999.0,  999.0,  999.0,  999.0,  999.0,  999.0,  999.0,  999.0,  999.0,  999.0,  999.0,  999.0,  999.0,  999.0,  999.0
2005/12/02 11:00,  999.0,    2.8,    2.7,    1.9,    9.9,   11.9,   11.8,   13.2,   13.8,   15.3,   14.3,   15.1,   14.4,   13.7,   14.2,   15.2,   16.1,   17.0,   16.2,   16.4,   16.4,   16.5,   16.4,   15.9,   16.4,   17.0,   17.2,   19.1,   20.6,   21.8,   23.5,   25.8,   30.0,   30.4,  999.0,   33.1,   34.1,   36.0,  999.0,  999.0,  999.0,  999.0,  999.0,  999.0,  999.0,  999.0,  999.0,  999.0,  999.0,  999.0,  999.0,  999.0,  999.0,  999.0,  999.0,  999.0,  999.0,  999.0,  999.0,  999.0,  999.0,  999.0,  999.0
2005/12/02 11:10,  999.0,    1.6,    2.0,  999.0,    7.4,   11.6,   10.9,   12.2,   13.5,   14.3,   13.7,   15.3,   14.9,   13.9,   15.3,   13.8,   14.5,   15.9,   16.2,   16.9,   17.0,   16.7,   15.9,   16.6,   17.7,   18.0,   18.7,   19.6,   20.8,   21.7,   23.5,   25.9,   29.2,   30.9,   31.8,   33.0,   34.5,   35.7,   36.8,   37.8,  999.0,  999.0,  999.0,  999.0,  999.0,  999.0,  999.0,  999.0,  999.0,  999.0,  999.0,  999.0,  999.0,  999.0,  999.0,  999.0,  999.0,  999.0,  999.0,  999.0,  999.0,  999.0,  999.0
2005/12/02 11:20,  999.0,    1.8,    4.0,    4.0,    7.0,   11.9,   10.6,   11.8,   13.3,   14.3,   14.0,   15.0,   14.7,   15.0,   15.4,   14.7,   16.2,   16.4,   16.3,   16.2,   16.2,   16.1,   16.2,   17.2,   17.9,   18.3,   18.9,   19.6,   20.6,   21.9,   23.9,   26.2,   28.7,   30.5,   31.8,   33.2,   35.0,   37.0,   37.8,   38.5,  999.0,   37.6,  999.0,  999.0,  999.0,  999.0,  999.0,  999.0,  999.0,  999.0,  999.0,  999.0,  999.0,  999.0,  999.0,  999.0,  999.0,  999.0,  999.0,  999.0,  999.0,  999.0,  999.0
2005/12/02 11:30,  999.0,    1.7,    1.4,  999.0,   10.0,   11.5,   10.6,   11.6,   13.6,   14.0,   14.8,   15.6,   16.0,   16.6,   16.3,   15.7,   16.5,   16.2,   16.3,   16.1,   16.0,   15.9,   15.7,   17.1,   17.6,   18.0,   18.7,   19.2,   20.3,   21.5,   23.5,   26.7,   29.0,   30.9,   32.7,   33.9,   36.2,  999.0,  999.0,  999.0,  999.0,  999.0,   37.7,  999.0,  999.0,  999.0,  999.0,  999.0,  999.0,  999.0,  999.0,  999.0,  999.0,  999.0,  999.0,  999.0,  999.0,  999.0,  999.0,  999.0,  999.0,  999.0,  999.0
2005/12/02 11:40,  999.0,    1.9,    2.1,  999.0,  999.0,   11.9,   10.9,   11.7,   13.5,   14.2,   14.3,   15.4,   15.6,   15.1,   15.7,   16.3,   15.7,   15.8,   16.3,   16.6,   16.5,   16.1,   15.3,   16.8,   17.0,   17.2,   17.9,   18.5,   19.9,   20.6,   23.6,   27.3,   29.2,   30.9,   32.7,   34.8,   37.8,   38.1,   39.0,   38.1,   38.0,  999.0,  999.0,  999.0,  999.0,  999.0,  999.0,  999.0,  999.0,  999.0,  999.0,  999.0,  999.0,  999.0,  999.0,  999.0,  999.0,  999.0,  999.0,  999.0,  999.0,  999.0,  999.0
2005/12/02 11:50,  999.0,    2.5,    1.3,    1.8,   11.8,   11.5,   10.6,   12.0,   13.5,   13.6,   14.4,   15.7,   16.1,   15.7,   14.6,   14.6,   14.6,   15.3,   15.6,   15.8,   16.4,   16.4,   16.3,   17.0,   17.4,   17.5,   17.7,   18.7,   19.4,   21.4,   25.1,   27.8,   29.5,   31.2,   32.5,   34.1,   35.8,   37.2,   38.2,   38.3,   38.5,   38.3,   39.0,  999.0,  999.0,  999.0,  999.0,  999.0,  999.0,  999.0,  999.0,  999.0,  999.0,  999.0,  999.0,  999.0,  999.0,  999.0,  999.0,  999.0,  999.0,  999.0,  999.0
2005/12/02 12:00,  999.0,    1.3,    1.1,  999.0,  999.0,   11.6,   10.9,   11.2,   12.5,   13.6,   14.3,   15.2,   15.6,   15.4,   15.1,   15.3,   16.1,   16.6,   15.7,   16.3,   15.6,   15.8,   16.3,   16.6,   17.1,   17.4,   18.3,   19.0,   19.5,   22.1,   25.2,   27.9,   29.8,   31.3,   32.5,   33.6,   34.3,   36.0,   37.5,   37.9,   38.5,   38.6,   39.1,   40.2,   40.4,   40.6,  999.0,  999.0,  999.0,  999.0,  999.0,  999.0,  999.0,  999.0,  999.0,  999.0,  999.0,  999.0,  999.0,  999.0,  999.0,  999.0,  999.0
2005/12/02 12:10,  999.0,  999.0,  999.0,  999.0,  999.0,   11.4,   10.7,   10.8,   12.3,   14.0,   14.7,   15.8,   16.4,   16.4,   15.6,   18.5,   17.0,   15.7,   15.5,   15.3,   15.1,   15.2,   16.4,   17.4,   17.7,   18.0,   19.0,   19.7,   20.1,   22.0,   23.9,   26.8,   28.5,   30.1,   31.6,   32.6,   33.3,   34.6,   36.9,   38.3,   38.7,   39.1,   39.0,   39.9,   40.0,   39.9,   39.5,  999.0,  999.0,  999.0,  999.0,  999.0,  999.0,  999.0,  999.0,  999.0,  999.0,  999.0,  999.0,  999.0,  999.0,  999.0,  999.0
2005/12/02 12:20,  999.0,  999.0,  999.0,  999.0,  999.0,   11.5,   11.1,   11.7,   13.7,   14.1,  999.0,   15.9,   15.7,   16.1,   16.5,   16.0,   15.8,   15.6,   15.9,   15.7,   15.6,   15.5,   16.8,   17.1,   18.1,   18.6,   19.4,   19.7,   20.7,   22.5,   25.5,   27.7,   29.2,   30.6,   32.0,   33.4,   33.3,   33.8,   35.9,   38.4,   39.7,   40.2,   40.2,   40.0,   39.8,   40.1,   40.1,   42.0,   42.0,  999.0,  999.0,  999.0,  999.0,  999.0,  999.0,  999.0,  999.0,  999.0,  999.0,  999.0,  999.0,  999.0,  999.0
2005/12/02 12:30,  999.0,    1.7,  999.0,  999.0,    2.7,   11.0,   11.5,   12.8,   14.0,   14.4,   14.0,   15.7,   15.7,   15.9,   16.3,   16.4,   16.4,   16.5,   16.3,   16.5,   16.0,   15.2,   16.7,   17.2,   18.2,   18.9,   19.7,   20.1,   21.3,   24.2,   27.0,   28.7,   30.6,   31.8,   32.5,   32.6,   33.0,   34.0,   36.4,   38.9,   39.8,   39.9,   39.9,   40.1,   41.0,   42.0,   43.1,   43.4,   43.3,   43.3,  999.0,  999.0,  999.0,  999.0,  999.0,  999.0,  999.0,  999.0,  999.0,  999.0,  999.0,  999.0,  999.0
2005/12/02 12:40,  999.0,    1.2,    1.6,    2.0,    6.6,   12.2,   12.3,   14.2,  999.0,   14.7,  999.0,   16.5,   17.0,   16.2,   16.2,   16.4,   17.2,   16.9,   16.7,   16.7,   16.1,   15.6,   17.3,   17.5,   18.1,   19.2,   20.1,   21.2,   22.3,   25.4,   27.5,   29.6,   31.9,   33.0,   33.4,   32.5,   32.6,   34.4,   37.3,   39.2,   39.8,   40.2,   40.6,   41.6,   43.0,   43.4,   42.6,   42.8,   43.8,   45.0,   44.3,  999.0,  999.0,  999.0,  999.0,  999.0,  999.0,  999.0,  999.0,  999.0,  999.0,  999.0,  999.0
2005/12/02 12:50,  999.0,    0.6,    1.1,    1.5,    8.8,   12.3,   11.5,  999.0,   13.7,  999.0,  999.0,   14.1,   14.2,   15.9,   16.0,   16.9,   17.5,   16.9,   16.7,   16.4,   15.7,   16.5,   17.7,   17.9,   19.1,   20.5,   22.1,   22.9,   24.2,   26.3,   27.7,   29.6,   31.8,   32.8,   33.0,   32.4,   33.5,   35.9,   38.5,   39.4,   39.1,   39.0,   40.6,   42.4,   43.4,   44.9,   45.3,   46.7,   47.2,   47.2,  999.0,  999.0,  999.0,  999.0,  999.0,  999.0,  999.0,  999.0,  999.0,  999.0,  999.0,  999.0,  999.0
2005/12/02 13:00,  999.0,  999.0,    0.9,    5.2,    8.7,   12.6,   11.6,  999.0,  999.0,  999.0,  999.0,   16.5,   14.8,   15.0,   15.5,   17.2,   17.5,   18.1,   17.7,   15.6,   15.1,   16.7,   18.0,   18.5,   20.4,   23.0,   24.3,   24.3,   25.7,   27.7,   29.3,   31.5,   33.3,   33.4,   32.3,   33.2,   35.4,   37.4,   38.7,   39.3,   40.0,   39.1,   39.9,   41.4,   42.9,   44.8,   46.3,   46.6,   46.2,   47.3,  999.0,  999.0,  999.0,  999.0,  999.0,  999.0,  999.0,  999.0,  999.0,  999.0,  999.0,  999.0,  999.0
2005/12/02 13:10,  999.0,   -0.3,    3.4,    8.7,   11.4,   11.9,   12.2,  999.0,  999.0,   15.1,  999.0,   16.3,   15.4,   16.5,   17.9,   18.1,   17.6,   17.3,   17.1,   15.9,   16.2,   17.7,   18.4,   19.5,   22.1,   24.3,   25.0,   24.9,   26.4,   28.0,   29.9,   32.1,   33.4,   33.3,   33.1,   34.1,   35.6,   37.3,   38.1,   38.7,   39.0,   38.3,   38.9,   40.9,   42.2,   43.5,  999.0,  999.0,  999.0,  999.0,  999.0,  999.0,  999.0,  999.0,  999.0,  999.0,  999.0,  999.0,  999.0,  999.0,  999.0,  999.0,  999.0
2005/12/02 13:20,  999.0,    0.6,    4.5,    9.0,   12.0,   12.1,   12.1,   12.2,   13.1,   15.4,   16.2,   15.3,   15.6,   15.7,   17.0,   16.8,   17.2,   17.5,   17.5,   16.6,   16.9,   18.1,   19.3,   21.4,   23.7,   25.6,   25.6,   25.7,   27.2,   29.0,   31.0,   32.4,   33.1,   33.0,   33.3,   35.0,   36.4,   37.4,   37.9,   39.0,   39.0,   39.1,   39.0,   39.5,   41.1,   42.7,  999.0,  999.0,  999.0,  999.0,  999.0,  999.0,  999.0,  999.0,  999.0,  999.0,  999.0,  999.0,  999.0,  999.0,  999.0,  999.0,  999.0
2005/12/02 13:30,  999.0,    0.8,    5.6,    9.1,   11.4,   12.1,   13.0,   13.5,   14.0,   16.8,   16.6,   16.3,   16.5,   16.6,   17.4,   18.0,   17.6,   17.1,   16.4,   15.9,   17.4,   19.1,   19.6,   21.4,   23.3,   25.5,   25.7,   26.1,   27.9,   30.1,   31.7,   33.0,   33.3,   33.2,   33.9,   35.2,   35.2,   35.4,   36.9,   38.5,   38.4,   39.0,   39.9,   39.1,   40.4,  999.0,  999.0,  999.0,  999.0,  999.0,  999.0,  999.0,  999.0,  999.0,  999.0,  999.0,  999.0,  999.0,  999.0,  999.0,  999.0,  999.0,  999.0
2005/12/02 13:40,  999.0,    4.3,    8.1,   10.0,   10.9,   11.7,   12.4,   14.0,   14.6,   15.2,   15.1,   15.5,   15.8,   16.5,   17.4,   17.2,   16.3,   15.9,   15.4,   15.8,   17.7,   19.1,   19.5,   21.3,   24.5,   25.1,   26.0,   26.8,   28.2,   30.7,   32.6,   33.6,   33.5,   33.1,   33.2,   32.9,   33.9,   35.6,   37.3,   38.5,   38.3,   39.4,   39.5,  999.0,  999.0,  999.0,  999.0,  999.0,  999.0,  999.0,  999.0,  999.0,  999.0,  999.0,  999.0,  999.0,  999.0,  999.0,  999.0,  999.0,  999.0,  999.0,  999.0
2005/12/02 13:50,  999.0,    5.1,    9.5,   10.0,   11.1,   11.5,   12.2,   13.8,   14.2,   14.7,   14.5,   14.9,   15.8,   16.4,   16.2,   16.0,   15.6,   15.1,   15.0,   17.1,   19.3,   19.3,   19.7,   22.5,   25.1,   26.0,   26.6,   27.3,   29.6,   31.4,   33.2,   34.3,   33.3,   32.5,   32.1,   31.5,   33.9,   36.0,   37.6,   38.9,   39.0,  999.0,  999.0,  999.0,  999.0,  999.0,  999.0,  999.0,  999.0,  999.0,  999.0,  999.0,  999.0,  999.0,  999.0,  999.0,  999.0,  999.0,  999.0,  999.0,  999.0,  999.0,  999.0
2005/12/02 14:00,  999.0,    6.7,    7.8,    8.4,   10.0,   10.9,   11.8,   13.7,   14.3,   14.7,   15.9,   16.9,   17.5,   17.5,   17.4,   16.4,   15.8,   15.2,   16.0,   18.3,   20.0,   19.7,   20.1,   22.6,   25.1,   25.2,   25.7,   27.8,   30.5,   32.5,   33.0,   32.9,   32.5,   32.0,   30.8,  999.0,   34.6,  999.0,  999.0,  999.0,  999.0,  999.0,  999.0,  999.0,  999.0,  999.0,  999.0,  999.0,  999.0,  999.0,  999.0,  999.0,  999.0,  999.0,  999.0,  999.0,  999.0,  999.0,  999.0,  999.0,  999.0,  999.0,  999.0
2005/12/02 14:10,  999.0,    2.1,    5.0,    6.0,    9.9,   10.6,   11.4,   12.9,   13.5,   13.8,   14.5,   15.7,   16.8,   17.5,   17.7,   17.0,   16.6,   16.6,   17.0,   18.2,   20.6,   21.4,   21.6,   23.2,   24.9,   25.2,   25.9,   28.3,   30.8,   31.9,   32.3,   32.3,   32.3,   31.0,   30.6,   33.4,   36.9,  999.0,   39.4,  999.0,  999.0,  999.0,  999.0,  999.0,  999.0,  999.0,  999.0,  999.0,  999.0,  999.0,  999.0,  999.0,  999.0,  999.0,  999.0,  999.0,  999.0,  999.0,  999.0,  999.0,  999.0,  999.0,  999.0
2005/12/02 14:20,  999.0,    0.9,    4.3,    4.8,    8.9,   10.5,   11.1,   11.7,   12.4,   12.9,   13.8,   15.0,   16.2,   16.8,   17.4,   16.8,   16.7,   17.3,   17.3,   18.4,   20.8,   20.9,   21.5,   22.4,   23.4,   24.7,   25.9,   28.4,   30.7,   31.7,   31.9,   31.7,   30.9,   30.0,   32.1,   35.1,   37.6,   38.0,   39.0,   40.1,   40.8,   41.6,   41.8,  999.0,   41.9,   41.0,   41.5,   40.7,   40.7,   41.0,  999.0,  999.0,  999.0,  999.0,  999.0,  999.0,  999.0,  999.0,  999.0,  999.0,  999.0,  999.0,  999.0
2005/12/02 14:30,  999.0,    1.9,    3.9,    6.3,    8.7,   11.3,   10.9,   11.6,   11.5,   11.6,   14.0,   15.2,   16.9,   17.9,   17.4,  999.0,   16.4,   17.1,   17.7,   19.9,   21.5,   21.2,   22.4,   23.2,   23.3,   25.5,   27.2,   29.4,   31.6,   31.6,   31.7,   31.3,   30.0,   29.9,   33.6,   37.1,   38.4,   39.2,   39.6,   39.4,   39.8,   41.0,   40.4,  999.0,  999.0,  999.0,  999.0,  999.0,  999.0,  999.0,  999.0,  999.0,  999.0,  999.0,  999.0,  999.0,  999.0,  999.0,  999.0,  999.0,  999.0,  999.0,  999.0
2005/12/02 14:40,  999.0,    1.0,    3.9,    4.7,    9.6,   11.1,   10.5,   10.8,   10.9,   11.6,   13.2,   15.0,   16.6,   17.0,   16.1,   15.6,   16.6,   18.2,   18.8,   20.8,   22.0,   21.2,   22.4,   23.3,   24.1,   26.6,   29.0,   30.8,   31.9,   32.3,   32.0,   30.8,   29.6,   28.9,   32.5,   36.5,   38.4,   38.9,   40.2,   40.4,   40.2,   40.3,   40.0,   40.2,   40.4,   41.1,   41.0,   40.8,   41.6,   41.1,   40.9,  999.0,  999.0,  999.0,  999.0,  999.0,  999.0,  999.0,  999.0,  999.0,  999.0,  999.0,  999.0
2005/12/02 14:50,  999.0,    0.7,    2.8,    4.8,    9.6,   10.6,   10.4,   10.4,   10.3,   11.3,   12.6,   14.1,   15.9,   16.7,   16.5,   15.8,   18.0,   19.1,   19.5,   21.8,   21.5,   21.7,   23.4,   23.9,   24.5,   26.9,   28.7,   30.2,   31.3,   31.7,   31.7,   30.8,   29.3,   28.9,   32.8,   35.6,   38.1,   38.9,   40.3,   40.4,   40.5,   40.9,   41.2,   41.5,   41.5,   41.5,   41.7,  999.0,  999.0,  999.0,  999.0,  999.0,  999.0,  999.0,  999.0,  999.0,  999.0,  999.0,  999.0,  999.0,  999.0,  999.0,  999.0
2005/12/02 15:00,  999.0,    0.7,    1.1,    2.0,    9.4,   10.3,   10.9,   10.5,   10.4,   10.9,   12.4,   13.9,   15.4,   16.6,   16.4,   17.0,   19.0,   18.8,   20.4,   22.0,   23.2,   22.8,   23.4,   24.8,   24.8,   25.9,   28.0,   29.4,   30.2,   30.6,   30.8,   30.3,   28.8,   29.6,   32.3,   36.1,   38.8,   38.9,   39.8,   40.6,   41.0,   41.8,   42.5,   41.9,   41.5,   41.8,   41.7,   40.5,  999.0,  999.0,  999.0,  999.0,  999.0,  999.0,  999.0,  999.0,  999.0,  999.0,  999.0,  999.0,  999.0,  999.0,  999.0
2005/12/02 15:10,  999.0,    0.9,    1.6,  999.0,    9.3,   10.6,   10.4,   10.4,   11.2,   13.9,   13.4,   14.8,   16.4,   17.2,   17.9,   18.7,   19.1,   19.3,   20.9,   23.5,   22.9,   23.0,   24.8,   26.1,   26.2,   26.3,   27.7,   29.3,   29.9,   30.1,   29.4,   28.5,   28.2,   30.8,   33.8,   36.8,   38.5,   39.3,   39.6,   39.9,   41.0,   41.6,   41.8,  999.0,  999.0,  999.0,  999.0,  999.0,  999.0,  999.0,  999.0,  999.0,  999.0,  999.0,  999.0,  999.0,  999.0,  999.0,  999.0,  999.0,  999.0,  999.0,  999.0
2005/12/02 15:20,  999.0,    1.5,    1.0,    1.2,    8.7,  999.0,  999.0,  999.0,   12.1,   14.8,   15.3,   15.0,   15.6,   16.3,   17.0,   19.9,   19.4,   18.8,   21.4,   23.2,   23.6,   25.4,   26.2,   26.5,   27.4,   28.0,   29.0,   29.0,   28.9,   29.1,   28.0,   27.4,   29.0,   31.4,   34.8,   36.4,   38.5,   38.9,   40.3,   41.0,   42.2,  999.0,  999.0,  999.0,  999.0,  999.0,  999.0,  999.0,  999.0,  999.0,  999.0,  999.0,  999.0,  999.0,  999.0,  999.0,  999.0,  999.0,  999.0,  999.0,  999.0,  999.0,  999.0
2005/12/02 15:30,  999.0,    2.2,    1.9,    6.5,    8.4,    9.2,   10.4,   12.3,   12.9,   13.7,   15.4,   15.6,   14.3,   14.8,   16.2,   18.6,   19.5,   18.5,   20.0,   22.6,   24.9,   27.0,   26.9,   26.7,   27.9,   28.8,   29.5,   29.7,   29.3,   28.8,   28.1,   28.5,   30.8,   32.9,   34.9,   37.1,   39.2,   39.8,   41.5,   41.3,   41.4,   42.1,   41.4,  999.0,   41.5,  999.0,  999.0,  999.0,  999.0,  999.0,  999.0,  999.0,  999.0,  999.0,  999.0,  999.0,  999.0,  999.0,  999.0,  999.0,  999.0,  999.0,  999.0
2005/12/02 15:40,  999.0,    4.3,    5.1,    5.9,    6.8,    8.1,   12.3,   10.7,  999.0,   11.2,   12.1,   14.6,   14.6,   15.2,   15.7,   18.5,   16.6,   18.4,   19.7,   22.3,   26.2,   28.3,   27.3,   26.3,   27.3,   27.3,   28.3,   27.9,   27.5,   27.6,   27.0,  999.0,  999.0,  999.0,  999.0,  999.0,  999.0,  999.0,  999.0,  999.0,  999.0,  999.0,  999.0,  999.0,  999.0,  999.0,  999.0,  999.0,  999.0,  999.0,  999.0,  999.0,  999.0,  999.0,  999.0,  999.0,  999.0,  999.0,  999.0,  999.0,  999.0,  999.0,  999.0
2005/12/02 15:50,  999.0,  999.0,    3.7,    8.1,    9.9,   11.4,   12.8,   13.7,   14.5,   14.2,   15.1,   16.5,   17.4,   18.2,   19.2,   18.3,   17.3,   17.4,   19.7,   23.2,   25.4,   26.9,   26.4,   26.3,   26.5,   27.2,   27.4,   26.8,   26.1,   26.6,  999.0,  999.0,  999.0,  999.0,  999.0,  999.0,  999.0,  999.0,  999.0,  999.0,  999.0,  999.0,  999.0,  999.0,  999.0,  999.0,  999.0,  999.0,  999.0,  999.0,  999.0,  999.0,  999.0,  999.0,  999.0,  999.0,  999.0,  999.0,  999.0,  999.0,  999.0,  999.0,  999.0
2005/12/02 16:00,  999.0,  999.0,  999.0,  999.0,   10.3,   11.8,   13.0,   13.8,   14.3,   15.4,   16.5,   17.6,   18.1,   18.8,   19.3,   18.8,   18.0,   18.8,   21.2,   23.4,   24.7,   25.7,   26.0,   25.5,   25.4,   25.9,   25.2,   25.8,   26.4,   26.0,  999.0,  999.0,  999.0,  999.0,  999.0,  999.0,  999.0,  999.0,  999.0,  999.0,   40.8,   39.9,  999.0,  999.0,  999.0,  999.0,  999.0,  999.0,  999.0,  999.0,  999.0,  999.0,  999.0,  999.0,  999.0,  999.0,  999.0,  999.0,  999.0,  999.0,  999.0,  999.0,  999.0
2005/12/02 16:10,  999.0,    8.0,    7.0,  999.0,   11.3,   13.4,   13.6,   13.5,   14.1,   15.1,   16.4,   17.8,   19.1,   20.2,   20.0,   19.1,   18.8,   19.8,   20.8,   21.9,   22.5,   23.6,   25.6,   24.9,   23.6,   24.3,   24.6,   25.2,   25.7,   26.4,   27.5,   30.4,  999.0,  999.0,  999.0,  999.0,  999.0,  999.0,  999.0,  999.0,   39.8,   40.0,  999.0,   38.7,  999.0,  999.0,  999.0,  999.0,  999.0,  999.0,  999.0,  999.0,  999.0,  999.0,  999.0,  999.0,  999.0,  999.0,  999.0,  999.0,  999.0,  999.0,  999.0
2005/12/02 16:20,  999.0,  999.0,    7.5,    8.5,   10.5,   12.0,   13.3,   14.4,   15.4,   14.4,   15.5,   17.9,   18.5,   19.4,   20.7,   19.7,   20.2,   20.9,   20.9,   20.9,   22.0,   24.2,   26.2,   24.5,   24.6,   24.6,   25.6,   26.4,   27.1,   27.7,   28.5,   29.9,  999.0,  999.0,  999.0,  999.0,  999.0,  999.0,  999.0,  999.0,  999.0,  999.0,  999.0,  999.0,  999.0,  999.0,  999.0,  999.0,  999.0,  999.0,  999.0,  999.0,  999.0,  999.0,  999.0,  999.0,  999.0,  999.0,  999.0,  999.0,  999.0,  999.0,  999.0
2005/12/02 16:30,  999.0,  999.0,  999.0,   10.2,   12.7,   12.0,   12.8,   13.7,   13.8,   13.6,   14.8,   16.3,   18.1,   19.6,   20.3,   20.1,   19.8,   19.8,   20.2,   20.3,   22.0,   24.5,   25.9,   25.0,   25.1,   25.3,   26.0,   26.2,   26.5,   27.2,   29.3,   31.9,   33.5,  999.0,  999.0,  999.0,  999.0,  999.0,  999.0,  999.0,  999.0,  999.0,  999.0,  999.0,  999.0,  999.0,  999.0,  999.0,  999.0,  999.0,  999.0,  999.0,  999.0,  999.0,  999.0,  999.0,  999.0,  999.0,  999.0,  999.0,  999.0,  999.0,  999.0
2005/12/02 16:40,  999.0,  999.0,    7.0,  999.0,   10.2,   12.1,   12.8,   13.0,   13.0,   12.8,   14.1,   16.1,   18.0,   18.0,   19.8,   20.1,   20.1,   19.1,   19.1,   20.6,   22.6,   24.5,   25.2,   25.1,   26.1,   26.6,   26.7,   26.5,   26.6,   28.8,   30.9,   32.2,  999.0,   34.5,  999.0,  999.0,  999.0,   39.6,  999.0,  999.0,  999.0,  999.0,  999.0,  999.0,  999.0,  999.0,  999.0,  999.0,  999.0,  999.0,  999.0,  999.0,  999.0,  999.0,  999.0,  999.0,  999.0,  999.0,  999.0,  999.0,  999.0,  999.0,  999.0
2005/12/02 16:50,  999.0,  999.0,  999.0,  999.0,    9.2,   11.0,   11.8,   12.0,   12.7,   13.1,   13.4,   14.9,   17.4,   19.2,   19.9,   20.3,   20.7,   19.2,   19.3,   20.5,   22.3,   24.2,   24.5,   24.8,   25.4,   26.0,   27.2,   27.0,   26.8,   29.4,   30.6,   31.3,  999.0,  999.0,  999.0,  999.0,  999.0,  999.0,  999.0,  999.0,  999.0,  999.0,  999.0,  999.0,  999.0,  999.0,  999.0,  999.0,  999.0,  999.0,  999.0,  999.0,  999.0,  999.0,  999.0,  999.0,  999.0,  999.0,  999.0,  999.0,  999.0,  999.0,  999.0
2005/12/02 17:00,  999.0,  999.0,    5.8,    4.4,    7.5,    9.7,   11.1,   11.3,   10.8,   11.1,   11.9,   14.2,   17.4,   18.7,   19.1,   19.8,   20.6,   20.6,   20.2,   20.9,   22.0,   23.6,   24.1,   25.0,   24.9,   26.3,   27.7,   27.7,   27.7,   29.5,   29.9,   30.3,  999.0,   33.5,   34.6,   35.6,  999.0,  999.0,  999.0,  999.0,  999.0,  999.0,  999.0,  999.0,  999.0,  999.0,  999.0,  999.0,  999.0,  999.0,  999.0,  999.0,  999.0,  999.0,  999.0,  999.0,  999.0,  999.0,  999.0,  999.0,  999.0,  999.0,  999.0
2005/12/02 17:10,  999.0,  999.0,    5.9,    4.5,    7.0,   10.0,   11.4,   11.3,   11.3,   12.1,   13.5,   13.6,   15.0,   15.3,   17.0,   18.8,   19.8,   20.5,   20.7,   21.1,   21.9,   23.5,   24.2,   24.9,   24.7,   24.8,   26.4,   27.8,   27.8,   28.4,   28.9,   31.5,   32.9,   34.0,   34.2,   36.0,  999.0,  999.0,  999.0,  999.0,  999.0,  999.0,  999.0,  999.0,  999.0,  999.0,  999.0,  999.0,  999.0,  999.0,  999.0,  999.0,  999.0,  999.0,  999.0,  999.0,  999.0,  999.0,  999.0,  999.0,  999.0,  999.0,  999.0
2005/12/02 17:20,  999.0,    3.2,    4.1,    4.1,    6.6,    9.8,   11.2,   11.4,   11.1,   11.7,   12.3,   11.2,   11.2,   12.3,   14.4,   16.9,   18.4,   19.6,   19.8,   21.6,   23.3,   24.1,   25.5,   25.5,   24.9,   24.7,   25.9,   27.9,   29.2,   30.3,   32.0,   32.7,   33.2,   34.4,   35.4,   37.3,  999.0,  999.0,  999.0,  999.0,  999.0,  999.0,  999.0,  999.0,  999.0,  999.0,  999.0,  999.0,  999.0,  999.0,  999.0,  999.0,  999.0,  999.0,  999.0,  999.0,  999.0,  999.0,  999.0,  999.0,  999.0,  999.0,  999.0
2005/12/02 17:30,  999.0,    3.7,    4.6,  999.0,    4.4,    9.5,   10.6,   11.1,   10.9,   11.2,   11.6,   11.7,   10.7,   12.3,   14.2,   16.0,   16.5,   16.8,   18.0,   20.8,  999.0,  999.0,   26.7,  999.0,  999.0,  999.0,   25.1,   28.1,   30.3,   31.8,   32.4,   33.3,   33.9,  999.0,   35.8,  999.0,  999.0,  999.0,  999.0,  999.0,  999.0,  999.0,  999.0,  999.0,  999.0,  999.0,  999.0,  999.0,  999.0,  999.0,  999.0,  999.0,  999.0,  999.0,  999.0,  999.0,  999.0,  999.0,  999.0,  999.0,  999.0,  999.0,  999.0
2005/12/02 17:40,  999.0,    3.0,    3.1,    3.2,    5.1,    8.5,   10.2,   10.1,   10.2,   10.5,   11.2,   10.9,   11.2,   12.5,   13.1,   12.4,   13.3,   14.9,   16.8,   18.5,   20.6,  999.0,  999.0,  999.0,   23.8,   24.3,   25.8,  999.0,  999.0,  999.0,  999.0,  999.0,  999.0,  999.0,  999.0,  999.0,  999.0,  999.0,  999.0,  999.0,  999.0,  999.0,  999.0,  999.0,  999.0,  999.0,  999.0,  999.0,  999.0,  999.0,  999.0,  999.0,  999.0,  999.0,  999.0,  999.0,  999.0,  999.0,  999.0,  999.0,  999.0,  999.0,  999.0
2005/12/02 17:50,  999.0,    7.8,    7.0,    8.0,    8.6,    9.6,   11.1,   11.7,   11.1,   11.0,   11.9,   12.1,   11.2,   10.7,   11.7,   12.4,   13.0,   14.5,   16.8,   17.3,  999.0,  999.0,  999.0,  999.0,  999.0,  999.0,  999.0,  999.0,  999.0,  999.0,  999.0,  999.0,  999.0,  999.0,  999.0,  999.0,  999.0,  999.0,  999.0,  999.0,  999.0,  999.0,  999.0,  999.0,  999.0,  999.0,  999.0,  999.0,  999.0,  999.0,  999.0,  999.0,  999.0,  999.0,  999.0,  999.0,  999.0,  999.0,  999.0,  999.0,  999.0,  999.0,  999.0
2005/12/02 18:00,  999.0,    5.9,    8.3,    8.6,    9.0,    9.6,    9.8,    8.2,   10.4,   10.1,    9.5,    9.1,    9.8,   10.0,   11.2,   11.9,   13.2,   15.9,  999.0,  999.0,  999.0,  999.0,  999.0,  999.0,  999.0,  999.0,  999.0,   55.2,   55.3,   55.2,   55.3,   55.6,   55.4,  999.0,  999.0,   55.5,  999.0,  999.0,  999.0,  999.0,  999.0,  999.0,  999.0,  999.0,  999.0,  999.0,  999.0,  999.0,  999.0,  999.0,  999.0,  999.0,  999.0,  999.0,  999.0,  999.0,  999.0,  999.0,  999.0,  999.0,  999.0,  999.0,  999.0
2005/12/02 18:10,  999.0,  999.0,    7.9,  999.0,  999.0,  999.0,   11.8,   11.3,   10.9,   11.4,   11.6,   11.4,   10.7,   10.7,   10.8,   11.6,   13.2,   15.4,  999.0,  999.0,  999.0,  999.0,  999.0,  999.0,  999.0,  999.0,  999.0,  999.0,  999.0,  999.0,  999.0,  999.0,   55.4,   55.4,  999.0,  999.0,  999.0,  999.0,  999.0,  999.0,  999.0,  999.0,  999.0,  999.0,  999.0,  999.0,  999.0,  999.0,  999.0,  999.0,  999.0,  999.0,  999.0,  999.0,  999.0,  999.0,  999.0,  999.0,  999.0,  999.0,  999.0,  999.0,  999.0
2005/12/02 18:20,  999.0,    3.0,    1.9,    9.1,   10.4,   11.8,   11.5,   11.4,   11.0,   10.9,   11.1,   12.1,   11.2,   10.8,   11.1,   12.3,   14.5,   15.3,  999.0,  999.0,  999.0,  999.0,  999.0,  999.0,  999.0,  999.0,  999.0,  999.0,  999.0,  999.0,  999.0,  999.0,  999.0,   55.2,   55.4,  999.0,   55.2,   55.4,  999.0,   55.4,  999.0,  999.0,  999.0,  999.0,  999.0,  999.0,  999.0,  999.0,  999.0,  999.0,  999.0,  999.0,  999.0,  999.0,  999.0,  999.0,  999.0,  999.0,  999.0,  999.0,  999.0,  999.0,  999.0
2005/12/02 18:30,  999.0,    2.5,    5.1,    7.0,   11.5,   11.9,   11.7,   12.0,   12.0,   12.4,   11.5,   10.8,   10.8,   11.6,   12.8,   14.4,   15.6,   15.8,   15.9,  999.0,  999.0,  999.0,  999.0,  999.0,  999.0,  999.0,  999.0,  999.0,  999.0,  999.0,  999.0,  999.0,  999.0,  999.0,  999.0,  999.0,   55.1,  999.0,  999.0,  999.0,  999.0,  999.0,  999.0,  999.0,  999.0,  999.0,  999.0,  999.0,  999.0,  999.0,  999.0,  999.0,  999.0,  999.0,  999.0,  999.0,  999.0,  999.0,  999.0,  999.0,  999.0,  999.0,  999.0
2005/12/02 18:40,  999.0,    5.1,    6.1,   10.6,   11.7,   11.6,   11.8,   12.1,   12.1,   12.0,   11.8,   11.7,   11.7,   11.5,   13.8,   13.8,   15.0,   15.5,  999.0,   16.9,  999.0,  999.0,  999.0,  999.0,  999.0,  999.0,  999.0,  999.0,  999.0,  999.0,  999.0,  999.0,  999.0,  999.0,  999.0,  999.0,  999.0,  999.0,  999.0,  999.0,  999.0,  999.0,  999.0,  999.0,  999.0,  999.0,  999.0,  999.0,  999.0,  999.0,  999.0,  999.0,  999.0,  999.0,  999.0,  999.0,  999.0,  999.0,  999.0,  999.0,  999.0,  999.0,  999.0
2005/12/02 18:50,  999.0,  999.0,    4.8,    7.6,   11.3,   11.4,   11.7,   12.1,   13.0,   12.8,   11.9,   12.0,   12.5,   13.1,   13.4,   13.4,   14.8,   14.5,   15.7,   16.4,  999.0,  999.0,  999.0,  999.0,   24.3,   24.7,  999.0,  999.0,  999.0,  999.0,  999.0,  999.0,  999.0,  999.0,  999.0,  999.0,  999.0,  999.0,  999.0,  999.0,  999.0,  999.0,  999.0,  999.0,  999.0,  999.0,  999.0,  999.0,  999.0,  999.0,  999.0,  999.0,  999.0,  999.0,  999.0,  999.0,  999.0,  999.0,  999.0,  999.0,  999.0,  999.0,  999.0
2005/12/02 19:00,  999.0,    5.2,    8.3,    9.4,   11.4,   11.8,   11.8,   12.1,   13.1,   13.6,   12.7,   10.7,   10.4,   10.5,   11.6,   13.0,   12.3,   13.7,   15.3,   15.3,   17.4,   18.3,   19.1,   21.6,   23.9,   24.7,  999.0,  999.0,  999.0,  999.0,  999.0,  999.0,  999.0,  999.0,  999.0,  999.0,  999.0,  999.0,  999.0,  999.0,  999.0,  999.0,  999.0,  999.0,  999.0,  999.0,  999.0,  999.0,  999.0,  999.0,  999.0,  999.0,  999.0,  999.0,  999.0,  999.0,  999.0,  999.0,  999.0,  999.0,  999.0,  999.0,  999.0
2005/12/02 19:10,  999.0,    5.4,    9.1,   11.4,   11.3,   11.4,   11.4,   12.6,   13.1,   12.6,   11.9,   10.6,    9.3,    9.6,   10.7,   12.0,   12.3,   11.7,   13.8,   15.6,   16.9,   17.1,   19.7,   21.4,   22.9,  999.0,  999.0,  999.0,   31.0,   33.4,  999.0,  999.0,  999.0,  999.0,  999.0,  999.0,  999.0,  999.0,  999.0,  999.0,  999.0,  999.0,  999.0,  999.0,  999.0,  999.0,  999.0,  999.0,  999.0,  999.0,  999.0,  999.0,  999.0,  999.0,  999.0,  999.0,  999.0,  999.0,  999.0,  999.0,  999.0,  999.0,  999.0
2005/12/02 19:20,  999.0,    0.7,    1.0,    0.3,    0.7,   -0.4,   -4.5,   -0.1,    0.2,    1.1,    1.6,   -1.8,    2.2,    1.9,    1.8,    1.4,    1.4,    1.8,    4.4,    5.2,    5.4,  999.0,  999.0,  999.0,  999.0,  999.0,  999.0,  999.0,  999.0,  999.0,  999.0,  999.0,  999.0,  999.0,  999.0,  999.0,  999.0,  999.0,  999.0,  999.0,  999.0,  999.0,  999.0,  999.0,  999.0,  999.0,  999.0,  999.0,  999.0,  999.0,  999.0,  999.0,  999.0,  999.0,  999.0,  999.0,  999.0,  999.0,  999.0,  999.0,  999.0,  999.0,  999.0
2005/12/02 19:30,  999.0,   -1.0,   -0.9,   -2.1,   -3.1,   -4.3,   -4.2,   -4.5,   -3.6,   -2.4,   -2.9,   -2.2,   -1.1,   -0.7,   -0.9,   -0.8,   -1.4,   -2.7,   -3.8,   -4.6,   -6.5,  999.0,  999.0,  999.0,  999.0,  999.0,  999.0,  999.0,  999.0,  999.0,  999.0,  999.0,  999.0,   -0.1,    0.0,    0.0,   -0.1,   -0.2,    0.1,  999.0,  999.0,  999.0,  999.0,  999.0,  999.0,  999.0,  999.0,  999.0,  999.0,  999.0,  999.0,  999.0,    0.1,  999.0,  999.0,  999.0,  999.0,  999.0,   -0.0,  999.0,  999.0,  999.0,  999.0
2005/12/02 19:40,  999.0,    2.1,   -2.7,   -2.2,    1.6,    0.7,   -3.7,   -4.1,   -3.6,   -3.5,   -2.7,   -1.5,   -1.9,   -1.6,   -1.6,   -1.6,   -2.1,   -3.6,   -3.6,   -6.6,   -8.5,   -8.8,  999.0,  999.0,  999.0,  999.0,  999.0,  999.0,  999.0,  999.0,  999.0,  999.0,  999.0,  999.0,  999.0,   -0.1,   -0.3,  999.0,  999.0,  999.0,  999.0,  999.0,  999.0,  999.0,  999.0,  999.0,  999.0,  999.0,  999.0,  999.0,  999.0,   -0.1,  999.0,  999.0,  999.0,  999.0,  999.0,  999.0,  999.0,  999.0,  999.0,  999.0,  999.0
2005/12/02 19:50,  999.0,   -2.8,   -2.8,   -1.7,   -2.9,   -4.4,   -4.5,   -4.0,   -3.8,   -3.7,   -2.5,   -1.8,   -1.3,   -1.7,   -1.7,   -2.7,   -2.7,   -2.5,   -4.0,  999.0,   -8.4,   -9.2,  999.0,  999.0,  999.0,  999.0,  999.0,  999.0,  999.0,  999.0,  999.0,  999.0,  999.0,  999.0,  999.0,  999.0,  999.0,  999.0,  999.0,    0.1,  999.0,  999.0,  999.0,  999.0,  999.0,  999.0,  999.0,  999.0,  999.0,  999.0,  999.0,   -0.1,   -0.1,   -0.3,  999.0,  999.0,    0.0,  999.0,  999.0,  999.0,   -0.2,  999.0,    0.0
2005/12/02 20:00,  999.0,   -1.1,   -1.5,   -1.3,   -1.1,   -4.5,   -4.1,   -4.1,   -3.9,   -3.5,   -3.1,   -1.9,   -1.8,   -2.5,  999.0,   -3.2,   -2.9,   -3.2,   -4.6,   -7.3,  999.0,  999.0,  999.0,  999.0,  999.0,  999.0,  999.0,  999.0,  999.0,  999.0,  999.0,  999.0,  999.0,    0.1,   -0.1,   -0.1,    0.0,  999.0,  999.0,  999.0,  999.0,  999.0,  999.0,  999.0,  999.0,  999.0,  999.0,  999.0,  999.0,  999.0,  999.0,   -0.0,  999.0,  999.0,  999.0,   -0.0,  999.0,  999.0,  999.0,  999.0,  999.0,  999.0,  999.0
2005/12/02 20:10,  999.0,   -1.0,   -0.3,   -1.1,   -1.9,  999.0,   -4.8,   -4.8,   -4.5,   -3.5,   -2.7,   -0.7,   -0.2,   -0.7,   -1.3,   -2.3,   -3.2,   -4.4,   -5.8,  999.0,  999.0,  999.0,  999.0,  999.0,  999.0,  999.0,  999.0,  999.0,  999.0,  999.0,  999.0,  999.0,  999.0,  999.0,  999.0,  999.0,    0.0,    0.1,  999.0,  999.0,  999.0,  999.0,  999.0,  999.0,  999.0,  999.0,  999.0,  999.0,  999.0,  999.0,  999.0,  999.0,  999.0,  999.0,  999.0,  999.0,  999.0,   -0.0,  999.0,  999.0,    0.0,  999.0,  999.0
2005/12/02 20:20,  999.0,   -1.5,   -1.5,   -1.1,   -2.9,   -4.6,   -4.2,   -3.3,   -2.7,   -1.9,   -1.1,   -0.8,   -1.1,   -1.1,   -1.8,   -3.0,   -2.6,   -3.7,   -5.0,   -6.2,   -6.4,   -7.0,   -8.6,   -9.9,  -10.1,  999.0,  999.0,  999.0,  999.0,  999.0,  999.0,  999.0,  999.0,  999.0,  999.0,  999.0,  999.0,  999.0,  999.0,  999.0,  999.0,  999.0,  999.0,  999.0,  999.0,  999.0,  999.0,  999.0,    0.0,  999.0,  999.0,  999.0,   -0.0,  999.0,  999.0,  999.0,  999.0,  999.0,   -0.1,  999.0,  999.0,  999.0,  999.0
2005/12/02 20:30,  999.0,   -0.8,   -0.4,   -1.7,   -3.2,   -3.8,   -2.8,   -2.7,   -2.8,   -1.5,   -0.9,   -1.2,   -2.0,   -2.9,   -2.6,   -3.9,   -4.6,   -5.3,   -5.1,   -4.7,   -6.3,   -7.2,   -8.4,   -8.8,  999.0,  999.0,  999.0,  999.0,  999.0,  999.0,  999.0,  999.0,  999.0,  999.0,  999.0,  999.0,  999.0,  999.0,  999.0,  999.0,  999.0,  999.0,  999.0,  999.0,  999.0,  999.0,  999.0,  999.0,  999.0,  999.0,  999.0,  999.0,  999.0,  999.0,  999.0,   -0.1,  999.0,  999.0,  999.0,  999.0,  999.0,  999.0,    0.1
2005/12/02 20:40,  999.0,  999.0,   -1.6,   -0.4,   -3.1,   -4.4,   -4.1,   -3.9,   -3.2,   -1.6,   -1.8,   -2.3,   -2.8,   -3.5,   -4.6,   -5.4,   -4.1,   -3.7,   -4.1,   -5.1,   -6.5,   -7.8,  999.0,  999.0,  999.0,  999.0,  999.0,  999.0,  999.0,  999.0,  999.0,  999.0,  999.0,  999.0,  999.0,  999.0,  999.0,  999.0,  999.0,  999.0,  999.0,  999.0,  999.0,  999.0,  999.0,  999.0,  999.0,  999.0,  999.0,  999.0,  999.0,    0.1,  999.0,    0.1,  999.0,    0.0,  999.0,   -0.0,  999.0,  999.0,  999.0,  999.0,  999.0
2005/12/02 20:50,  999.0,  999.0,  999.0,   -0.3,   -2.9,   -6.0,   -5.8,   -5.0,   -5.2,   -3.8,   -3.4,   -4.0,   -4.0,   -5.3,   -5.2,   -5.7,   -4.8,   -4.0,   -4.4,   -5.8,  999.0,  999.0,  999.0,  999.0,  999.0,  999.0,  999.0,  999.0,  999.0,  999.0,  999.0,  999.0,  999.0,  999.0,  999.0,    0.0,   -0.0,   -0.2,   -0.0,   -0.3,   -0.1,  999.0,  999.0,  999.0,  999.0,  999.0,  999.0,  999.0,  999.0,  999.0,  999.0,  999.0,    0.1,  999.0,  999.0,  999.0,  999.0,  999.0,  999.0,  999.0,  999.0,  999.0,    0.1
2005/12/02 21:00,  999.0,   -1.0,   -1.1,   -0.4,   -2.8,   -6.3,   -5.9,   -6.4,   -5.3,   -4.7,   -4.0,   -3.2,   -2.3,   -3.7,   -4.7,   -5.6,   -4.1,   -3.5,   -4.5,   -6.2,   -6.8,   -9.0,  999.0,  999.0,  999.0,  999.0,  999.0,  999.0,  999.0,  999.0,  999.0,  999.0,  999.0,  999.0,  999.0,    0.2,    0.0,   -0.0,  999.0,    0.2,  999.0,  999.0,  999.0,  999.0,  999.0,  999.0,   -0.1,  999.0,  999.0,  999.0,  999.0,  999.0,  999.0,  999.0,  999.0,  999.0,   -0.1,  999.0,  999.0,  999.0,  999.0,  999.0,  999.0
2005/12/02 21:10,  999.0,   -1.4,    0.1,    0.0,   -0.5,  999.0,   -5.7,   -5.7,   -5.4,   -4.3,   -3.8,   -3.2,   -3.6,   -4.1,   -3.5,   -2.5,   -2.6,   -3.5,   -4.1,   -5.5,  999.0,   -7.3,  999.0,  999.0,  999.0,  999.0,  999.0,  999.0,  999.0,  999.0,  999.0,  999.0,  999.0,  999.0,  999.0,  999.0,   -0.0,   -0.1,   -0.1,   -0.0,  999.0,  999.0,  999.0,  999.0,  999.0,  999.0,  999.0,  999.0,  999.0,  999.0,  999.0,  999.0,  999.0,  999.0,  999.0,  999.0,  999.0,  999.0,  999.0,  999.0,  999.0,  999.0,  999.0
2005/12/02 21:20,  999.0,   -1.2,    0.1,    0.6,   -1.4,   -5.8,   -4.7,   -5.3,   -5.0,   -4.0,   -3.8,   -2.6,   -2.4,   -1.6,   -1.9,   -2.8,   -3.7,   -4.5,   -5.9,   -6.2,   -6.7,  999.0,  999.0,  999.0,  999.0,  999.0,  999.0,  999.0,  999.0,  999.0,  999.0,  999.0,  999.0,   -0.0,    0.1,   -0.0,    0.1,  999.0,  999.0,  999.0,  999.0,  999.0,  999.0,  999.0,  999.0,  999.0,  999.0,  999.0,  999.0,  999.0,   -0.2,   -0.2,   -0.1,  999.0,  999.0,   -0.2,  999.0,  999.0,   -0.4,  999.0,  999.0,  999.0,  999.0
2005/12/02 21:30,  999.0,   -0.9,   -0.6,   -0.1,   -2.8,   -4.3,   -4.7,   -4.3,   -4.0,   -3.7,   -3.2,   -2.3,   -1.5,   -2.0,   -2.7,   -3.2,   -3.9,   -4.9,   -7.2,   -7.4,   -8.4,  999.0,  999.0,  999.0,  999.0,  999.0,  999.0,  999.0,  999.0,  999.0,  999.0,  999.0,  999.0,  999.0,  999.0,   -0.1,    0.1,    0.1,   -0.1,    0.1,  999.0,  999.0,  999.0,  999.0,  999.0,  999.0,  999.0,  999.0,    0.0,  999.0,  999.0,  999.0,    0.0,  999.0,  999.0,  999.0,  999.0,  999.0,  999.0,  999.0,  999.0,  999.0,  999.0
2005/12/02 21:40,  999.0,   -0.4,   -0.2,    0.5,  999.0,   -3.8,   -3.2,   -2.6,   -2.9,   -0.9,   -0.4,   -2.0,   -1.4,   -0.9,   -2.6,   -3.3,   -3.1,   -5.1,  999.0,  999.0,   -8.0,  999.0,  999.0,  999.0,  999.0,  999.0,  999.0,  999.0,  999.0,  999.0,  999.0,  999.0,  999.0,  999.0,  999.0,  999.0,  999.0,    0.0,  999.0,  999.0,  999.0,  999.0,  999.0,  999.0,  999.0,  999.0,  999.0,  999.0,  999.0,  999.0,  999.0,  999.0,  999.0,  999.0,  999.0,    0.2,  999.0,  999.0,  999.0,  999.0,  999.0,  999.0,  999.0
2005/12/02 21:50,  999.0,   -0.4,   -0.3,    0.1,   -1.1,   -2.6,   -2.9,   -2.4,   -1.5,   -3.0,   -3.0,   -2.9,   -2.4,   -1.3,   -3.2,   -3.2,   -3.2,   -3.3,   -4.1,  999.0,  999.0,  999.0,  999.0,  999.0,  999.0,  999.0,  999.0,  999.0,  999.0,  999.0,  999.0,  999.0,  999.0,  999.0,  999.0,  999.0,  999.0,  999.0,  999.0,  999.0,  999.0,  999.0,  999.0,  999.0,  999.0,  999.0,  999.0,  999.0,  999.0,  999.0,  999.0,  999.0,  999.0,  999.0,  999.0,  999.0,  999.0,  999.0,  999.0,  999.0,  999.0,  999.0,  999.0
2005/12/02 22:00,  999.0,   -0.7,   -0.1,   -0.1,   -0.4,   -1.4,   -2.1,   -2.2,   -2.0,   -2.2,   -2.2,   -0.9,   -1.9,   -1.9,   -1.1,   -3.9,   -3.8,   -4.5,   -4.3,  999.0,  999.0,  999.0,  999.0,  999.0,  999.0,  999.0,  999.0,  999.0,  999.0,  999.0,    0.0,    0.0,    0.0,    0.0,   -0.1,   -0.1,    0.0,  999.0,   -0.0,  999.0,  999.0,  999.0,  999.0,  999.0,  999.0,  999.0,  999.0,  999.0,  999.0,  999.0,  999.0,  999.0,  999.0,  999.0,  999.0,  999.0,  999.0,  999.0,  999.0,  999.0,  999.0,  999.0,  999.0
2005/12/02 22:10,  999.0,   -0.5,   -0.6,   -0.9,   -1.6,   -3.1,   -3.2,   -4.3,   -3.2,   -3.4,   -2.2,   -1.9,   -2.9,   -3.7,   -4.1,   -4.5,   -4.6,   -5.1,   -5.1,  999.0,  999.0,  999.0,  999.0,  999.0,  999.0,  999.0,  999.0,  999.0,  999.0,  999.0,  999.0,  999.0,    0.0,   -0.1,   -0.1,    0.1,    0.2,   -0.1,   -0.1,   -0.3,  999.0,  999.0,  999.0,  999.0,  999.0,  999.0,  999.0,  999.0,  999.0,    0.1,   -0.0,   -0.1,    0.2,  999.0,  999.0,    0.2,  999.0,    0.0,  999.0,  999.0,  999.0,  999.0,  999.0
2005/12/02 22:20,  999.0,   -0.6,   -0.6,   -0.4,   -0.4,   -2.5,   -3.0,   -3.3,   -4.3,   -3.9,   -3.4,   -3.1,   -3.1,   -3.7,   -3.6,   -3.5,   -4.5,   -5.0,  999.0,  999.0,  999.0,  999.0,  999.0,  999.0,  999.0,  999.0,  999.0,  999.0,  999.0,  999.0,  999.0,  999.0,  999.0,   -0.0,    0.0,    0.0,   -0.1,   -0.2,   -0.1,  999.0,  999.0,  999.0,  999.0,  999.0,  999.0,  999.0,  999.0,  999.0,  999.0,  999.0,  999.0,  999.0,  999.0,  999.0,  999.0,  999.0,  999.0,   -0.1,  999.0,  999.0,  999.0,  999.0,   -0.0
2005/12/02 22:30,  999.0,   -0.6,   -0.2,   -0.2,   -0.1,   -1.0,   -1.0,   -1.8,   -2.6,   -2.4,   -2.5,   -2.4,   -3.5,   -3.4,   -4.1,   -5.2,   -5.7,   -5.6,  999.0,  999.0,  999.0,  999.0,  999.0,  999.0,  999.0,  999.0,  999.0,  999.0,  999.0,  999.0,  999.0,  999.0,  999.0,  999.0,  999.0,  999.0,  999.0,  999.0,  999.0,  999.0,  999.0,  999.0,  999.0,  999.0,  999.0,  999.0,  999.0,  999.0,  999.0,  999.0,  999.0,  999.0,  999.0,  999.0,  999.0,  999.0,  999.0,  999.0,  999.0,  999.0,  999.0,  999.0,  999.0
2005/12/02 22:40,  999.0,   -0.6,   -1.4,   -0.6,   -0.6,   -1.3,   -0.8,   -1.0,   -1.9,   -1.7,   -2.6,   -4.1,   -4.9,   -5.1,   -6.2,   -6.5,   -7.1,  999.0,  999.0,  999.0,  999.0,  999.0,  999.0,  999.0,  999.0,  999.0,  999.0,  999.0,  999.0,  999.0,  999.0,  999.0,  999.0,  999.0,  999.0,  999.0,  999.0,  999.0,  999.0,  999.0,  999.0,  999.0,  999.0,  999.0,  999.0,  999.0,  999.0,  999.0,  999.0,  999.0,  999.0,  999.0,  999.0,  999.0,  999.0,    0.2,  999.0,  999.0,  999.0,  999.0,  999.0,  999.0,  999.0
2005/12/02 22:50,  999.0,   -0.7,   -0.6,    0.2,   -0.2,   -0.4,   -0.3,   -0.7,   -1.3,   -2.8,   -3.2,   -4.3,   -4.7,   -4.9,   -5.3,   -6.2,   -6.4,   -6.4,  999.0,  999.0,  999.0,  999.0,  999.0,  999.0,  999.0,  999.0,  999.0,  999.0,  999.0,  999.0,  999.0,  999.0,  999.0,  999.0,  999.0,  999.0,  999.0,  999.0,  999.0,  999.0,   -0.1,  999.0,  999.0,  999.0,  999.0,  999.0,  999.0,  999.0,  999.0,  999.0,   -0.2,  999.0,    0.0,  999.0,    0.2,    0.3,  999.0,    0.1,  999.0,    0.1,   -0.1,  999.0,  999.0
2005/12/02 23:00,  999.0,   -0.8,   -0.2,    0.7,   -0.7,   -0.3,   -0.7,   -0.5,   -1.3,   -2.0,   -2.7,   -3.6,   -4.9,   -5.3,   -6.5,   -6.6,   -6.4,  999.0,  999.0,  999.0,  999.0,  999.0,  999.0,  999.0,  999.0,  999.0,  999.0,  999.0,  999.0,  999.0,  999.0,  999.0,  999.0,  999.0,  999.0,  999.0,  999.0,  999.0,  999.0,  999.0,  999.0,  999.0,  999.0,  999.0,  999.0,  999.0,  999.0,  999.0,  999.0,  999.0,  999.0,  999.0,   -0.3,  999.0,  999.0,  999.0,  999.0,  999.0,   -0.1,  999.0,  999.0,  999.0,  999.0
2005/12/02 23:10,  999.0,   -0.4,   -0.2,    0.9,    0.6,    0.7,   -0.1,   -1.5,   -2.9,   -3.6,   -3.7,   -5.3,   -5.5,   -5.8,   -6.6,   -6.2,   -6.0,   -6.0,  999.0,  999.0,  999.0,  999.0,  999.0,  999.0,  999.0,  999.0,  999.0,  999.0,  999.0,  999.0,  999.0,  999.0,  999.0,  999.0,  999.0,  999.0,  999.0,  999.0,  999.0,  999.0,  999.0,  999.0,  999.0,  999.0,  999.0,  999.0,  999.0,  999.0,  999.0,  999.0,  999.0,  999.0,  999.0,  999.0,  999.0,  999.0,  999.0,  999.0,  999.0,  999.0,  999.0,  999.0,  999.0
2005/12/02 23:20,  999.0,   -0.9,   -0.1,    0.7,   -0.1,   -0.7,   -1.4,   -1.8,   -3.3,   -3.9,   -5.2,   -5.5,   -6.1,   -6.3,   -5.8,   -5.7,   -5.3,  999.0,  999.0,  999.0,  999.0,  999.0,  999.0,  999.0,  999.0,  999.0,  999.0,  999.0,  999.0,  999.0,  999.0,  999.0,  999.0,  999.0,  999.0,  999.0,  999.0,  999.0,  999.0,  999.0,  999.0,  999.0,  999.0,  999.0,  999.0,  999.0,  999.0,  999.0,  999.0,  999.0,  999.0,  999.0,   -0.1,  999.0,  999.0,  999.0,    0.1,   -0.3,   -0.0,  999.0,  999.0,  999.0,  999.0
2005/12/02 23:30,  999.0,   -0.6,   -0.1,    0.4,   -0.5,   -0.8,   -1.3,   -2.0,   -3.2,   -4.1,   -5.8,   -6.8,   -6.7,   -6.2,   -5.3,   -6.1,  999.0,  999.0,  999.0,  999.0,  999.0,  999.0,  999.0,  999.0,  999.0,  999.0,  999.0,  999.0,  999.0,  999.0,  999.0,  999.0,  999.0,  999.0,  999.0,  999.0,  999.0,  999.0,  999.0,  999.0,  999.0,  999.0,  999.0,  999.0,  999.0,  999.0,  999.0,  999.0,  999.0,  999.0,    0.0,  999.0,   -0.2,  999.0,    0.1,    0.1,  999.0,  999.0,  999.0,  999.0,  999.0,  999.0,  999.0
2005/12/02 23:40,  999.0,   -0.7,   -0.2,    0.3,   -0.6,   -0.9,   -1.0,   -1.7,   -2.9,   -4.4,   -5.4,   -6.2,   -6.0,   -5.5,   -5.6,   -6.4,  999.0,  999.0,  999.0,  999.0,  999.0,  999.0,  999.0,  999.0,  999.0,  999.0,  999.0,  999.0,  999.0,  999.0,  999.0,  999.0,  999.0,  999.0,  999.0,  999.0,  999.0,  999.0,  999.0,  999.0,  999.0,  999.0,  999.0,  999.0,  999.0,  999.0,  999.0,    0.3,   -0.1,  999.0,  999.0,   -0.0,    0.0,  999.0,  999.0,  999.0,    0.0,  999.0,  999.0,  999.0,   -0.1,    0.2,    0.4
2005/12/02 23:50,  999.0,   -1.3,   -0.6,   -0.1,   -1.3,   -2.4,   -3.2,   -3.7,   -4.9,   -4.9,   -5.5,   -6.4,   -5.6,  999.0,   -5.1,  999.0,  999.0,  999.0,  999.0,  999.0,  999.0,  999.0,  999.0,  999.0,  999.0,  999.0,  999.0,  999.0,  999.0,  999.0,  999.0,  999.0,  999.0,  999.0,  999.0,  999.0,  999.0,  999.0,  999.0,  999.0,  999.0,  999.0,  999.0,  999.0,  999.0,  999.0,  999.0,  999.0,  999.0,  999.0,  999.0,   -0.0,  999.0,  999.0,    0.0,  999.0,    0.1,  999.0,  999.0,  999.0,  999.0,  999.0,  999.0
